                ,  0.290,  0.386,  0.483,  0.580,  0.676,  0.773,  0.869,  0.966,  1.063,  1.159,  1.256,  1.352,  1.449,  1.545,  1.642,  1.739,  1.835,  1.932,  2.028,  2.125,  2.222,  2.318,  2.415,  2.511,  2.608,  2.705,  2.801,  2.898,  2.994,  3.091,  3.188,  3.284,  3.381,  3.477,  3.574,  3.671,  3.767,  3.864,  3.960,  4.057,  4.153,  4.250,  4.347,  4.443,  4.540,  4.636,  4.733,  4.830,  4.926,  5.023,  5.119,  5.216,  5.313,  5.409,  5.506,  5.602,  5.699,  5.796
2000/11/01 00:00,  999.0,  999.0,  999.0,  999.0,  999.0,  999.0,  999.0,  999.0,  999.0,    2.9,  999.0,  999.0,  999.0,  999.0,  999.0,  999.0,  999.0,  999.0,  999.0,  999.0,  999.0,  999.0,    7.3,  999.0,  999.0,  999.0,  999.0,  999.0,  999.0,  999.0,  999.0,  999.0,  999.0,  999.0,  999.0,  999.0,  999.0,  999.0,  999.0,  999.0,  999.0,  999.0,  999.0,  999.0,  999.0,  999.0,  999.0,  999.0,  999.0,  999.0,  999.0,  999.0,  999.0,  999.0,  999.0,  999.0,  999.0,  999.0
2000/11/01 00:10,  999.0,   -1.3,  999.0,   -0.3,   -0.2,    0.7,  999.0,    0.6,  999.0,    1.3,    1.2,  999.0,  999.0,  999.0,  999.0,  999.0,  999.0,  999.0,    0.3,    0.1,  999.0,  999.0,  999.0,    6.6,  999.0,  999.0,  999.0,  999.0,  999.0,  999.0,  999.0,  999.0,  999.0,  999.0,  999.0,  999.0,  999.0,  999.0,  999.0,  999.0,  999.0,  999.0,  999.0,  999.0,  999.0,  999.0,  999.0,  999.0,  999.0,  999.0,  999.0,  999.0,  999.0,  999.0,  999.0,  999.0,  999.0,  999.0
2000/11/01 00:20,  999.0,   -0.8,  999.0,    1.9,    1.6,    1.9,    1.0,   -0.3,   -0.6,    1.6,    1.1,  999.0,  999.0,  999.0,  999.0,   -1.0,  999.0,  999.0,  999.0,    5.4,  999.0,    1.4,  999.0,    0.9,  999.0,  999.0,    1.2,   -0.3,    0.5,  999.0,  999.0,  999.0,  999.0,  999.0,  999.0,  999.0,  999.0,  999.0,  999.0,  999.0,  999.0,  999.0,  999.0,  999.0,  999.0,  999.0,  999.0,  999.0,  999.0,  999.0,  999.0,  999.0,  999.0,  999.0,  999.0,  999.0,  999.0,  999.0
2000/11/01 00:30,  999.0,   -0.3,  999.0,  999.0,    1.6,    1.5,    1.8,    0.2,   -0.4,  999.0,    1.1,  999.0,  999.0,    5.3,    2.3,  999.0,    1.7,   -0.5,  999.0,   -1.7,    1.6,    1.5,  999.0,    0.7,  999.0,    0.2,   -1.0,   -3.1,   -4.1,  999.0,  999.0,  999.0,  999.0,  999.0,  999.0,  999.0,  999.0,  999.0,  999.0,  999.0,  999.0,  -20.1,  999.0,  999.0,  999.0,  999.0,  999.0,  -21.1,  999.0,  999.0,  -21.3,  999.0,  999.0,  999.0,  -21.3,  999.0,  999.0,  -20.9
2000/11/01 00:40,  999.0,  999.0,    1.5,  999.0,  999.0,    1.7,  999.0,  999.0,  999.0,  999.0,  999.0,  999.0,  999.0,    4.1,    5.7,   -2.8,  999.0,  999.0,    1.2,   -0.8,   -0.1,  999.0,  999.0,  999.0,  999.0,  999.0,  999.0,  999.0,  999.0,  999.0,  999.0,  999.0,  999.0,  999.0,  999.0,  999.0,  999.0,  999.0,  999.0,  999.0,  999.0,  999.0,  999.0,  999.0,  999.0,  999.0,  999.0,  999.0,  999.0,  999.0,  999.0,  999.0,  999.0,  999.0,  999.0,  999.0,  999.0,  999.0
2000/11/01 00:50,  999.0,    0.6,  999.0,    2.3,    4.0,    2.4,  999.0,   -3.5,   -3.6,   -4.0,   -6.3,   -6.3,   -3.7,   -2.3,   -1.5,  999.0,  999.0,   -4.2,   -2.5,   -2.9,   -3.6,   -5.5,  999.0,   -5.7,  999.0,  999.0,  999.0,  999.0,  999.0,  999.0,  999.0,  999.0,  999.0,  999.0,  999.0,  999.0,  999.0,  999.0,  999.0,  999.0,  999.0,  999.0,  999.0,  999.0,  999.0,  999.0,  999.0,  999.0,  999.0,  999.0,  999.0,  999.0,  999.0,  999.0,  999.0,  999.0,  999.0,  999.0
2000/11/01 01:00,  999.0,  999.0,   -0.8,    0.9,   -5.1,   -4.0,   -5.4,   -2.8,   -2.5,   -3.0,   -4.2,   -4.0,   -1.5,   -2.4,   -1.4,   -0.5,   -1.6,   -0.2,   -4.4,   -1.9,   -3.8,   -5.4,   -4.7,   -4.9,   -5.2,   -6.1,  999.0,  999.0,  999.0,  999.0,  999.0,  999.0,  999.0,  999.0,  999.0,  999.0,  999.0,  999.0,  999.0,  999.0,  999.0,  999.0,  999.0,  999.0,  999.0,  999.0,  999.0,  999.0,  999.0,  999.0,  999.0,  999.0,  999.0,  999.0,  999.0,  999.0,  999.0,  999.0
2000/11/01 01:10,  999.0,    2.7,   -0.4,  999.0,  -12.5,   -7.2,   -3.0,   -1.8,   -1.9,   -1.2,   -1.1,   -1.1,   -0.9,   -1.1,   -1.6,   -2.8,   -2.4,   -3.4,   -3.9,  999.0,  999.0,  999.0,  999.0,  999.0,  999.0,  999.0,  999.0,  999.0,  999.0,  999.0,  999.0,  999.0,  999.0,  999.0,  999.0,  999.0,  999.0,  999.0,  999.0,  999.0,  999.0,  999.0,  999.0,  999.0,  999.0,  999.0,  999.0,  999.0,  999.0,  999.0,  999.0,  999.0,  999.0,  999.0,  999.0,  999.0,  999.0,  999.0
2000/11/01 01:20,  999.0,   -2.0,   -1.6,   -4.7,   -6.7,   -7.0,   -3.8,   -1.8,   -1.3,   -2.6,   -2.1,   -2.5,   -2.3,   -2.4,   -3.6,   -5.6,   -7.5,   -7.7,   -7.0,  999.0,  999.0,  999.0,  999.0,  999.0,  999.0,  999.0,  999.0,  999.0,  999.0,  999.0,  999.0,  999.0,  999.0,  999.0,  999.0,  999.0,  999.0,  999.0,  999.0,  999.0,  999.0,  999.0,  999.0,  999.0,  999.0,  999.0,  999.0,  999.0,  999.0,  999.0,  999.0,  999.0,    4.5,    4.7,    4.2,    3.6,    2.1,    1.4
2000/11/01 01:30,  999.0,   -2.2,  999.0,  999.0,   -7.1,   -8.0,   -5.4,   -3.6,   -3.2,   -2.6,   -2.6,   -4.5,   -3.8,   -5.1,   -6.1,   -5.9,  999.0,  -11.9,  -11.3,  999.0,  999.0,  999.0,  999.0,  999.0,  999.0,  999.0,  999.0,  999.0,  999.0,  999.0,  999.0,  999.0,  999.0,  999.0,  999.0,  999.0,  999.0,  999.0,  999.0,  999.0,  999.0,  999.0,  999.0,  999.0,  999.0,  999.0,  999.0,  999.0,    4.0,    4.9,    4.2,    3.5,    3.5,    3.2,    3.1,    2.7,    2.1,    1.4
2000/11/01 01:40,  999.0,  999.0,  -10.7,  999.0,  999.0,   -9.9,   -0.3,    0.7,   -8.3,  999.0,   -7.8,   -4.4,   -6.3,  999.0,  999.0,  999.0,  999.0,  999.0,  999.0,  999.0,  999.0,  999.0,  999.0,  999.0,  999.0,   -8.2,   -7.0,   -4.2,   -1.4,   -0.8,  -35.5,    0.1,  -18.1,  -17.2,  -17.6,  999.0,  999.0,  999.0,  999.0,  999.0,  999.0,   -9.0,   -4.2,   -1.5,    1.1,    2.8,    3.6,    4.4,    4.5,    3.7,    4.0,    3.3,    3.3,    3.1,    2.8,    2.9,    2.2,    1.6
2000/11/01 01:50,  999.0,    1.0,    2.6,    2.0,    2.1,    1.8,   -3.9,   -8.9,   -8.9,   -8.5,   -5.1,   -4.8,   -7.3,   -6.5,   -5.8,   -6.4,   -7.5,   -7.6,   -6.5,   -4.4,   -1.8,    0.5,    0.2,    0.8,    0.7,    0.2,    0.4,    0.8,    1.6,    2.6,    3.6,    3.1,    3.1,    2.7,    2.0,    1.7,    1.7,    2.0,    0.7,   -0.1,    1.1,    2.0,  999.0,    3.6,    3.0,    2.7,    4.1,    3.6,    3.9,    4.1,    3.5,    4.0,    3.9,    3.6,    3.2,    4.1,    2.3,    2.2
2000/11/01 02:00,  999.0,    3.5,    1.9,    1.1,    0.2,   -0.2,   -0.4,   -0.9,   -1.2,   -0.6,   -0.0,    0.2,    0.6,    0.9,    1.6,    1.2,    0.6,    0.5,    0.5,    0.5,    0.7,   -0.1,    0.7,    0.9,    0.5,    0.2,   -0.2,   -0.5,   -0.0,    0.4,    0.7,    0.9,   -0.4,    0.1,   -0.4,    1.6,    0.2,    0.5,   -0.1,    0.0,   -0.5,   -0.3,  999.0,  999.0,  999.0,    5.6,   -3.8,  999.0,    4.2,   -4.8,   11.5,    0.3,  -15.9,   -0.4,  999.0,   -0.3,  999.0,   -0.6
2000/11/01 02:10,  999.0,    3.7,    2.5,    0.8,    0.2,    0.2,   -0.7,    0.3,   -0.3,   -1.0,    0.4,   -2.4,    1.2,   -0.0,   -3.1,   -4.8,    0.7,  999.0,  999.0,  -12.2,   -6.0,   -1.2,   -1.1,  999.0,   -0.7,   -0.8,    0.2,   -0.3,   -0.7,   -0.5,   -0.7,   -0.7,   -0.9,   -0.9,  999.0,   -1.9,  999.0,   -1.3,   -1.3,  999.0,   -0.7,   -0.4,   -0.8,   -0.7,   -1.0,   -0.4,   -0.4,   -0.5,   -1.3,    0.2,   -0.3,   -0.1,   -0.1,    0.2,  999.0,   -0.0,    0.7,   -0.8
2000/11/01 02:20,  999.0,  999.0,  999.0,    3.0,   -0.6,    1.9,   -0.2,   -0.6,  999.0,  999.0,  999.0,  999.0,   20.9,  999.0,   -0.2,  999.0,    5.1,  999.0,  999.0,  999.0,  999.0,  999.0,  999.0,  999.0,  999.0,  999.0,  999.0,  999.0,  999.0,  999.0,  999.0,  999.0,  999.0,  999.0,  999.0,  999.0,  999.0,  999.0,  999.0,  999.0,  999.0,  999.0,  999.0,  999.0,  999.0,  999.0,  999.0,  999.0,  999.0,  999.0,  999.0,  999.0,  999.0,  999.0,   42.0,   41.9,  999.0,   41.8
2000/11/01 02:30,  999.0,    0.3,    7.5,  999.0,  999.0,  999.0,   -0.1,  999.0,  999.0,  999.0,  999.0,  999.0,   21.1,  999.0,  999.0,   22.8,  999.0,  999.0,   22.0,   21.9,   22.9,   23.7,   22.4,   24.9,   26.7,   21.1,   28.6,   28.7,   29.4,   26.4,   30.6,   22.0,   33.1,   28.4,   34.3,   28.1,   35.2,   20.9,   29.0,   20.9,  999.0,   30.0,   41.6,   31.6,   20.7,   41.5,   42.1,   42.8,   41.9,   41.4,   41.9,   41.7,   41.8,  999.0,   41.8,   42.8,  999.0,   41.3
2000/11/01 02:40,  999.0,    1.9,    0.1,   -0.5,   -0.2,    1.2,  999.0,  999.0,   -8.9,  -22.0,  999.0,   20.9,   -0.1,   21.6,  999.0,   21.2,  999.0,   -7.6,   -9.1,  -15.5,  -21.5,   21.6,  999.0,   23.5,  999.0,   25.2,   10.6,  999.0,  999.0,  999.0,  999.0,   30.6,   34.3,  999.0,  -21.5,   37.1,   35.5,   39.4,    9.9,   38.0,   17.1,   41.1,  999.0,    5.2,   42.5,   40.7,   24.3,  -21.0,  999.0,   42.0,   41.2,   42.1,  999.0,   19.8,   21.0,   31.2,  999.0,   -1.2
2000/11/01 02:50,  999.0,   -0.7,    1.2,    4.4,    1.4,    1.4,    6.2,    9.9,   -0.5,   -3.9,   -2.1,    3.1,  999.0,  999.0,  999.0,    6.9,  999.0,  999.0,   12.6,  999.0,  999.0,  999.0,    7.4,    2.8,  999.0,  999.0,  999.0,    9.1,  999.0,  999.0,  999.0,  999.0,  999.0,  999.0,  999.0,  999.0,  999.0,  999.0,  999.0,  999.0,  999.0,  999.0,  999.0,  999.0,  999.0,  999.0,  999.0,  999.0,  999.0,  999.0,   21.1,  999.0,  999.0,  999.0,  999.0,  999.0,  999.0,  999.0
2000/11/01 03:00,  999.0,  999.0,  999.0,  999.0,    0.1,   -2.1,   -1.6,  999.0,    0.4,   -0.7,   -3.0,   -5.0,   -1.6,   -0.4,  999.0,  999.0,  999.0,  999.0,  999.0,  999.0,   -7.2,  999.0,  999.0,  999.0,  999.0,  999.0,  999.0,  999.0,  999.0,  999.0,  999.0,  999.0,  999.0,  999.0,  999.0,  999.0,  999.0,  999.0,    8.0,  999.0,  999.0,  999.0,  999.0,   14.0,  999.0,  999.0,  999.0,  999.0,  999.0,  999.0,  999.0,   15.6,  999.0,  999.0,  999.0,  999.0,  999.0,  999.0
2000/11/01 03:10,  999.0,   -0.8,   -0.9,  999.0,    7.8,  999.0,    2.4,    2.8,  999.0,    3.0,  999.0,    5.7,   -1.4,   -1.3,   -3.1,   -1.0,  999.0,  999.0,  999.0,  999.0,  999.0,  999.0,    2.5,   14.0,  999.0,   21.8,  999.0,   27.4,  999.0,  999.0,  999.0,  999.0,  999.0,   31.5,   22.7,  999.0,  999.0,  999.0,   41.5,  999.0,   42.0,  999.0,  999.0,   41.9,   24.0,  999.0,  999.0,  999.0,   42.0,  999.0,  999.0,  999.0,  999.0,  999.0,  999.0,  999.0,  999.0,  999.0
2000/11/01 03:20,  999.0,   -3.4,   -5.5,   -6.2,   -1.0,    0.5,   -2.2,   -1.8,    0.7,   -4.5,   -3.0,    4.7,  999.0,  999.0,  999.0,  999.0,   -7.2,    4.2,  999.0,  999.0,  999.0,  999.0,  999.0,  999.0,  999.0,  999.0,  999.0,  999.0,  999.0,  999.0,  999.0,  999.0,  999.0,  999.0,   41.8,  999.0,   42.2,   41.8,  999.0,   41.5,   42.3,   42.3,   42.0,   41.8,  999.0,   41.9,   41.5,  999.0,   42.2,  999.0,   43.0,   42.1,   41.2,  999.0,   41.8,  999.0,   41.8,   41.6
2000/11/01 03:30,  999.0,  999.0,  999.0,   -1.9,    1.9,    0.7,    0.2,    0.6,    1.2,    0.4,  999.0,    1.8,    6.2,    3.4,  999.0,    3.1,  999.0,   20.5,  999.0,  999.0,  999.0,  999.0,   34.9,  999.0,   36.1,  999.0,  999.0,   37.9,   39.2,   37.8,   39.5,   41.7,   41.8,   42.1,  999.0,   41.4,   42.5,   42.2,   42.3,   42.1,   42.5,   41.8,   42.4,   41.8,   41.8,   42.3,   42.7,   42.6,   42.2,   41.7,   41.8,   42.9,   41.9,   42.3,   42.1,   42.9,   41.9,   41.8
2000/11/01 03:40,  999.0,    1.9,  999.0,  999.0,   -1.3,    2.0,    4.2,    1.6,    0.5,    0.9,    2.1,    2.1,    4.5,  999.0,  999.0,  999.0,  999.0,  999.0,  999.0,   22.5,  999.0,  999.0,   27.6,   25.7,   29.7,   31.8,   33.7,   36.1,   37.7,  999.0,   41.8,  999.0,   41.6,   41.6,   41.8,  999.0,   42.2,   41.9,   41.5,   41.7,   41.5,   42.1,   41.9,   41.5,   42.4,   41.5,   41.5,   41.3,   41.9,   41.3,   41.5,  999.0,  999.0,   41.2,   41.4,   41.4,   41.7,   41.7
2000/11/01 03:50,  999.0,  999.0,    0.5,   -1.7,    0.8,    1.9,    0.5,   -1.8,   -2.0,  999.0,  999.0,   -0.1,    0.0,  999.0,  999.0,  999.0,  999.0,  999.0,   -0.1,  999.0,  999.0,   27.3,  999.0,  999.0,  999.0,   31.6,   32.9,  999.0,  999.0,  999.0,  999.0,  999.0,   39.8,  999.0,  999.0,   42.4,  999.0,  999.0,  999.0,  999.0,  999.0,   41.7,   42.0,  999.0,   41.0,  999.0,  999.0,   41.6,  999.0,   42.2,   42.3,   42.0,   40.8,   42.3,   41.5,   42.0,  999.0,   42.4
2000/11/01 04:00,  999.0,   -0.6,    0.8,    1.5,    0.7,    5.3,   -3.3,   -2.8,    3.7,   -3.1,  999.0,  999.0,   -2.4,   -0.2,  999.0,   -0.7,    0.3,  999.0,  999.0,  999.0,  999.0,  999.0,  999.0,  999.0,  999.0,  999.0,  999.0,  999.0,  999.0,  999.0,  999.0,  999.0,  999.0,  999.0,  999.0,  999.0,  999.0,  999.0,  999.0,  999.0,  999.0,  999.0,   20.9,  999.0,   20.4,   23.2,  999.0,  999.0,  999.0,  999.0,  999.0,   20.8,  999.0,  999.0,  999.0,  999.0,  999.0,  999.0
2000/11/01 04:10,  999.0,   -5.2,  999.0,  999.0,   -0.8,   -3.9,   -0.7,   -1.0,   -0.2,  999.0,    1.1,    1.9,  999.0,  999.0,   -0.6,  999.0,  999.0,  999.0,  999.0,  999.0,  999.0,  999.0,  999.0,  999.0,  999.0,  999.0,  999.0,  999.0,  999.0,  999.0,  999.0,  999.0,    4.5,  999.0,  999.0,  999.0,  999.0,  999.0,  999.0,  999.0,  999.0,  999.0,  999.0,  999.0,  999.0,  999.0,  999.0,  999.0,  999.0,  999.0,  999.0,  999.0,  999.0,  999.0,  999.0,  999.0,  999.0,  999.0
2000/11/01 04:20,  999.0,  999.0,  999.0,    1.1,   -1.3,   -0.0,    1.3,    0.8,    0.9,    1.7,  999.0,    9.4,  999.0,    0.6,  999.0,  999.0,  999.0,  999.0,  999.0,  999.0,  999.0,  999.0,  999.0,  999.0,  999.0,  999.0,  999.0,  999.0,  999.0,  999.0,  999.0,  999.0,  999.0,  999.0,  999.0,  999.0,  999.0,  999.0,  999.0,  999.0,  999.0,  999.0,  999.0,  999.0,  999.0,  999.0,  999.0,   41.4,  999.0,   41.4,   42.3,   42.5,  999.0,  999.0,  999.0,   42.3,  999.0,   41.6
2000/11/01 04:30,  999.0,    1.8,    1.3,    0.3,    0.4,   -0.1,    1.1,    0.4,    1.0,  999.0,  999.0,   -1.6,  999.0,  999.0,  999.0,    3.0,    3.3,  999.0,  999.0,  999.0,  999.0,  999.0,   13.3,  999.0,  999.0,  999.0,  999.0,  999.0,  999.0,  999.0,  999.0,  999.0,  999.0,  999.0,  999.0,  999.0,   40.4,  999.0,   41.8,   41.2,   41.1,  999.0,   41.3,  999.0,   41.2,   41.9,  999.0,  999.0,  999.0,   41.8,   41.4,  999.0,   41.8,   41.4,   40.9,   41.5,  999.0,   42.2
2000/11/01 04:40,  999.0,    3.0,    4.2,   -0.6,    1.7,  999.0,    0.4,    2.3,    1.2,  999.0,  999.0,  999.0,  999.0,  999.0,  999.0,  -21.5,  -20.0,  999.0,  -19.9,  999.0,  -18.9,  -17.6,  -17.5,  -15.9,  999.0,  999.0,  -13.9,  999.0,  -11.6,  -11.4,  999.0,  999.0,  999.0,   -7.6,   -6.6,   -6.6,   -6.0,   -4.6,  999.0,   -3.6,   -2.1,   -1.9,  999.0,   -0.3,   -0.6,  999.0,  999.0,  999.0,   -1.5,  999.0,   -1.6,   -1.1,  999.0,  999.0,   -1.0,  999.0,   -0.7,  999.0
2000/11/01 04:50,  999.0,  999.0,   -2.4,   -0.3,   -0.4,    1.6,   -0.4,   -0.9,    2.9,   -4.9,    1.5,   -2.5,  999.0,   -4.0,  999.0,  999.0,  999.0,    3.8,    9.2,  999.0,  999.0,  999.0,  999.0,  999.0,  -20.4,  999.0,  -18.7,  -17.7,  999.0,  999.0,  999.0,  -14.2,  999.0,  -12.0,   -6.8,  999.0,  999.0,   -3.5,   -5.4,  999.0,   -6.8,   -5.2,   -4.7,   -3.5,  999.0,   41.3,   -1.0,   -0.7,  999.0,   -0.4,    0.1,   41.3,   -1.0,   -1.2,   -0.5,   20.6,   -0.8,   -1.4
2000/11/01 05:00,  999.0,    1.4,   -0.5,    0.6,    2.1,   -0.8,   -0.6,    2.0,  999.0,    3.0,   -3.1,   -7.8,  999.0,   -8.9,  999.0,  999.0,  999.0,  999.0,  999.0,  -18.3,  -17.3,  -19.0,  -19.7,  999.0,  999.0,  -13.8,  -18.3,  -15.2,  999.0,  -13.8,  -13.3,  -11.9,   -8.9,  999.0,   -9.2,   -8.4,   -5.1,  999.0,   -4.2,  999.0,   -4.0,   -1.6,   -0.5,   -0.4,  999.0,  999.0,   -2.5,   -0.9,   -1.1,   -1.3,  999.0,   -1.7,   -1.1,   -1.1,   -1.7,   -0.4,   -1.0,   -0.9
2000/11/01 05:10,  999.0,    0.1,    0.7,   -0.3,   -1.2,   -0.0,    2.0,   -0.7,  999.0,    3.7,   -0.8,  999.0,  -10.0,  999.0,   -6.9,   -7.6,  999.0,  999.0,  999.0,  999.0,  999.0,  999.0,  -18.1,  -17.1,  999.0,  999.0,  999.0,  -13.9,  -13.5,  -12.1,  -13.3,   -9.3,  -11.2,  999.0,   -7.6,   -7.6,   -7.8,   -6.9,  999.0,  999.0,   -3.3,   -1.6,   -3.2,   -0.5,   -0.7,   -0.5,  999.0,   -0.2,   -0.6,   -0.7,   -0.7,   -1.0,   -0.9,  999.0,   -0.9,   -1.1,   -1.7,   -1.0
2000/11/01 05:20,  999.0,    0.3,    1.5,   -0.0,  999.0,   -0.1,  999.0,   -3.1,   -0.7,  999.0,  999.0,  999.0,  999.0,  999.0,  999.0,  999.0,  999.0,  999.0,  -20.7,  999.0,  999.0,  999.0,  -15.3,  999.0,  -15.4,  -15.1,  -12.2,  -10.8,   -9.4,   -6.8,  -10.2,  999.0,   -4.9,   -5.0,   -0.2,   -3.7,   -3.1,   -4.8,   -2.3,   -1.8,   -3.2,   -0.4,  999.0,   -1.1,  999.0,   -0.4,   -0.4,    0.3,   -0.5,   -0.6,   -0.7,   -0.2,   -0.7,   -0.5,   -0.1,   -1.1,   -0.4,    0.4
2000/11/01 05:30,  999.0,    0.8,  999.0,  999.0,  999.0,  999.0,  999.0,  999.0,  999.0,  999.0,  999.0,  999.0,  999.0,  999.0,  999.0,  999.0,  999.0,  999.0,  999.0,  999.0,  -20.8,  999.0,  -17.1,  -17.2,  -15.6,  -15.2,  -14.9,  -13.0,  -13.2,  -10.1,  -11.5,  -11.2,  999.0,   -5.4,   -8.4,   -7.4,   -4.7,   -6.0,   -2.0,   -1.6,   -2.4,   -2.6,   -1.4,   -1.0,   -1.0,   -0.8,   -0.8,  999.0,   -0.6,   -0.3,  999.0,  999.0,  999.0,   -0.7,  999.0,   -0.8,   -1.0,   -0.7
2000/11/01 05:40,  999.0,    4.6,   -0.6,   -0.4,   -1.5,   -1.1,   -2.0,  999.0,    0.4,  999.0,  999.0,  999.0,  999.0,   -6.7,  999.0,  999.0,  999.0,  999.0,  999.0,  999.0,  999.0,  -17.0,  -15.5,  999.0,  -13.8,  -12.5,  -13.5,  -13.4,  -12.4,  -10.9,  999.0,  999.0,  999.0,   -6.2,   -4.8,  999.0,  999.0,  999.0,  999.0,  999.0,   -0.9,  999.0,   -1.0,   -0.7,   -1.1,   -1.0,  999.0,   -1.0,  999.0,   -1.7,  999.0,   -0.2,  999.0,   -0.1,   -0.6,  999.0,  999.0,   -0.5
2000/11/01 05:50,  999.0,    2.9,    1.2,   -0.1,   -0.6,   -0.2,   -1.8,  999.0,  999.0,  999.0,  999.0,  999.0,  999.0,  999.0,  999.0,  999.0,  999.0,  999.0,  999.0,  999.0,  999.0,  999.0,  999.0,  999.0,  999.0,  999.0,  999.0,  999.0,  999.0,  999.0,  999.0,  999.0,  999.0,  999.0,  999.0,  999.0,   19.2,  999.0,  999.0,  999.0,  999.0,  999.0,  999.0,  999.0,   22.6,  999.0,  999.0,  999.0,  999.0,  999.0,  999.0,  999.0,  999.0,  999.0,   19.9,  999.0,  999.0,  999.0
2000/11/01 06:00,  999.0,   -0.5,  999.0,    2.0,    1.5,    0.3,   -1.1,  -10.2,  -11.3,  999.0,    0.6,  -21.0,  999.0,  999.0,  999.0,  -21.7,  999.0,    1.6,  -21.9,  999.0,  999.0,  999.0,  999.0,  999.0,  -15.1,  999.0,  999.0,  999.0,  999.0,  999.0,  999.0,    4.4,  999.0,  999.0,   -3.5,  999.0,  999.0,  999.0,  999.0,    7.8,  999.0,   -0.8,  999.0,  999.0,   -0.7,  999.0,   -0.8,  999.0,  999.0,  999.0,  999.0,  999.0,  999.0,  999.0,  999.0,  999.0,   -1.1,  999.0
2000/11/01 06:10,  999.0,    0.4,    0.9,    1.5,    0.1,    0.0,   -0.1,   -0.8,  999.0,   -0.7,    0.6,  999.0,   -4.6,  999.0,  999.0,  999.0,  999.0,  999.0,  999.0,  999.0,  999.0,  999.0,  999.0,  999.0,  999.0,  999.0,  999.0,  999.0,  999.0,  999.0,  999.0,  999.0,  999.0,  999.0,  999.0,  999.0,  999.0,  999.0,  999.0,  999.0,  999.0,  999.0,  999.0,  999.0,  999.0,  999.0,  999.0,  999.0,  999.0,  999.0,  999.0,  999.0,  999.0,  999.0,  999.0,  999.0,  999.0,  999.0
2000/11/01 06:20,  999.0,    0.6,    1.1,    5.8,  999.0,  999.0,   22.1,  999.0,    9.6,  999.0,  999.0,   20.8,   21.0,   20.7,  999.0,   21.4,  999.0,  999.0,  999.0,   25.0,  999.0,   25.7,   27.3,  999.0,   29.6,  999.0,  999.0,  999.0,   32.7,  999.0,  999.0,   35.9,   36.6,   38.2,  999.0,   41.2,  999.0,  999.0,   41.9,  999.0,   43.0,   42.0,   41.6,   42.0,  999.0,  999.0,  999.0,  999.0,   41.4,   41.4,   41.3,  999.0,   42.1,   41.9,  999.0,   41.8,  999.0,   41.4
2000/11/01 06:30,  999.0,    0.3,   -0.6,   -1.0,    0.8,   -0.7,  999.0,   -1.6,   -0.7,  999.0,  999.0,  999.0,  999.0,  999.0,  999.0,  999.0,  999.0,  999.0,    2.6,  999.0,  999.0,    7.4,  999.0,  999.0,  999.0,  999.0,  999.0,  999.0,  999.0,  999.0,  999.0,  999.0,  999.0,  999.0,  999.0,  999.0,   19.8,  999.0,  999.0,   17.7,  999.0,  999.0,  999.0,  999.0,  999.0,   41.4,  999.0,   40.9,   41.2,   42.1,   41.2,  999.0,   41.6,   41.9,   41.4,   41.9,  999.0,  999.0
2000/11/01 06:40,  999.0,   -0.4,  999.0,   -1.9,  999.0,  999.0,  999.0,  999.0,  999.0,   -1.9,  999.0,  999.0,  999.0,  999.0,  999.0,  999.0,  999.0,  999.0,  999.0,  999.0,  999.0,  999.0,    5.0,  999.0,  999.0,  999.0,  999.0,  999.0,  999.0,  999.0,  999.0,  999.0,  999.0,  999.0,  999.0,  999.0,  999.0,  999.0,   25.2,  999.0,  999.0,  999.0,  999.0,   41.0,  999.0,   42.3,   41.6,   42.5,   42.4,  999.0,   42.6,   41.9,  999.0,   31.7,   20.7,   42.5,  999.0,   41.9
2000/11/01 06:50,  999.0,  999.0,  999.0,    0.2,   -2.7,  999.0,   -2.1,  999.0,    0.5,  999.0,   -1.0,  999.0,  999.0,  999.0,  999.0,  999.0,  999.0,  999.0,  999.0,  999.0,  999.0,  999.0,  999.0,  999.0,  999.0,  999.0,  999.0,  999.0,  999.0,  999.0,  999.0,  999.0,  999.0,   35.0,  999.0,  999.0,  999.0,  999.0,  999.0,   40.6,  999.0,  999.0,   41.0,   41.3,   41.3,   41.2,   41.3,   41.6,   40.8,   41.5,   40.6,   41.7,   41.3,   41.8,  999.0,   42.1,   42.0,   41.4
2000/11/01 07:00,  999.0,  999.0,  999.0,    0.3,  999.0,  999.0,  999.0,  999.0,  999.0,  999.0,  999.0,   -3.5,  999.0,  999.0,  999.0,   -3.5,  999.0,  999.0,  999.0,  999.0,  999.0,  999.0,  999.0,  999.0,  999.0,  999.0,  999.0,  999.0,  999.0,  999.0,  999.0,  999.0,   35.8,   36.6,  999.0,  999.0,   39.6,   40.8,   41.4,  999.0,  999.0,  999.0,  999.0,  999.0,   41.6,   41.7,   41.2,   41.1,  999.0,  999.0,  999.0,   41.3,  999.0,   41.8,  999.0,   42.3,  999.0,   42.0
2000/11/01 07:10,  999.0,  999.0,  999.0,   -1.4,   -2.3,   -3.7,  999.0,  999.0,  999.0,  999.0,  999.0,  999.0,  -20.8,  999.0,  999.0,  999.0,   15.1,   22.7,   23.7,   22.4,   24.7,   25.3,   26.6,  999.0,   28.5,  999.0,   30.5,  999.0,   32.1,  999.0,   34.3,   34.8,  999.0,  999.0,   37.7,   37.8,  999.0,  999.0,  999.0,  999.0,  999.0,  999.0,  999.0,  999.0,   41.4,   41.2,  999.0,  999.0,  999.0,  999.0,  999.0,   41.7,   20.9,  999.0,   -0.7,  999.0,   -0.8,   42.0
2000/11/01 07:20,  999.0,   -1.4,  999.0,   -0.3,   -1.5,  999.0,  999.0,  999.0,  999.0,  999.0,  999.0,  999.0,  -21.5,   -0.5,  -21.3,  -21.8,   20.9,    0.0,  -20.8,    0.9,  999.0,   -4.2,  -16.8,    4.3,   -4.6,    4.3,  999.0,  -10.1,  -14.9,   -9.1,  999.0,  999.0,  999.0,   -4.9,   -3.9,  -10.1,   -5.8,  999.0,  999.0,   -4.7,   -5.6,  -10.0,  -10.2,   -7.2,   -4.9,   -2.1,   -3.7,  999.0,   -2.6,   -1.5,  999.0,   -2.3,  999.0,   -4.7,  999.0,   -1.0,   -0.2,   -1.2
2000/11/01 07:30,  999.0,   -0.9,   -1.3,   -1.8,   -2.2,   -3.1,   -2.5,    0.6,   -1.0,   -1.2,   -1.4,   -1.8,   -1.4,   -0.5,   -4.2,   -6.3,  999.0,  999.0,  999.0,  999.0,  999.0,  999.0,  999.0,  999.0,  999.0,  999.0,  999.0,  999.0,  999.0,  999.0,  999.0,  999.0,  999.0,  999.0,  999.0,  999.0,  999.0,  999.0,  999.0,  999.0,  999.0,  999.0,  999.0,  999.0,  999.0,  999.0,  999.0,  999.0,  999.0,  999.0,  999.0,  999.0,  999.0,  999.0,  999.0,  999.0,  999.0,  999.0
2000/11/01 07:40,  999.0,   -3.1,   -0.9,    0.3,   -0.7,   -1.3,    0.1,    1.6,    2.7,    1.3,   -0.3,   -1.4,   -1.7,   -0.8,   -2.9,  999.0,   -7.0,   -8.7,  999.0,  999.0,  -15.9,  -17.4,  999.0,  -22.6,  999.0,  999.0,  999.0,  999.0,  999.0,  999.0,  999.0,  -41.6,  999.0,  999.0,  999.0,  -41.5,  999.0,  -42.1,  -41.7,  999.0,  -41.3,  -41.3,  -42.3,  -41.5,  999.0,  -41.9,  999.0,  999.0,  999.0,  999.0,  999.0,  999.0,  999.0,  999.0,  999.0,  999.0,  999.0,  999.0
2000/11/01 07:50,  999.0,   -4.8,   -3.2,   -1.4,   -0.9,   -1.5,   -0.6,    0.2,  999.0,   -1.0,   -2.7,   -2.4,  999.0,  999.0,  999.0,  999.0,   -6.1,  999.0,  999.0,  999.0,  999.0,  999.0,  999.0,  999.0,  999.0,  999.0,  999.0,  999.0,  999.0,  -30.7,  -32.0,  999.0,  -33.4,  999.0,  999.0,  999.0,  999.0,  999.0,  999.0,  -41.4,  999.0,  999.0,  -41.2,  999.0,  -42.5,  -41.5,  999.0,  999.0,  999.0,  999.0,  999.0,  -42.0,  -41.9,  -42.2,  999.0,  999.0,  999.0,  999.0
2000/11/01 08:00,  999.0,   -4.4,   -3.9,   -0.7,   -0.6,   -0.9,   -2.0,   -0.6,   -1.4,   -0.2,   -1.2,   -1.4,   -0.1,    0.6,    0.5,   -1.8,   -2.3,   -8.9,  -11.1,  -14.9,  -12.2,    1.3,  999.0,  999.0,  999.0,  -24.5,  999.0,   13.7,  -30.3,   12.3,  -30.6,   10.8,  -10.8,  -37.3,  -37.6,    8.3,  -21.1,  -42.1,  -36.1,  999.0,  -20.0,  -41.2,    2.7,  999.0,  -40.6,  -41.2,  -41.7,  999.0,  -41.9,  -27.6,  999.0,  -14.1,  -34.7,  -41.5,  -31.4,    1.0,  -36.6,  -32.3
2000/11/01 08:10,  999.0,   -3.4,   -2.7,   -0.6,   -0.4,   -0.8,   -2.0,   -0.8,   -1.0,  999.0,   -2.3,   -2.3,   -2.4,   -1.9,   -3.9,   -4.1,   -7.8,  -11.1,  -11.2,  -12.6,  -15.5,  999.0,  999.0,  999.0,  -21.2,  999.0,  999.0,  999.0,  999.0,  999.0,  -39.4,  999.0,  -41.5,  -42.4,  -42.2,  -30.4,  -19.0,  -30.7,  -30.2,  -30.3,  -30.1,  -42.0,  -42.0,  -42.3,  -41.9,  -41.8,  -41.4,  -41.9,  -41.6,  -41.4,  -42.1,  -41.8,  -41.6,  -41.9,  999.0,  -40.6,  999.0,  999.0
2000/11/01 08:20,  999.0,   -4.2,   -2.4,   -0.4,   -1.2,   -1.9,   -1.0,   -0.6,    0.1,   -1.0,   -1.8,   -1.6,   -1.6,   -1.4,   -3.7,  999.0,  999.0,  999.0,  999.0,  999.0,  999.0,  999.0,   -4.4,  999.0,  999.0,  999.0,  999.0,  999.0,  999.0,  999.0,  999.0,  999.0,  999.0,  999.0,  999.0,  999.0,  999.0,  999.0,  999.0,  999.0,  999.0,  999.0,  999.0,  999.0,  999.0,  999.0,  999.0,  999.0,  999.0,  999.0,  999.0,  999.0,  999.0,  999.0,  999.0,  999.0,  999.0,    2.9
2000/11/01 08:30,  999.0,   -3.3,   -2.7,   -0.3,   -1.0,   -1.3,   -1.0,   -0.3,   -0.7,   -0.3,   -0.5,    0.0,   -0.2,  999.0,   -0.2,   -0.2,  999.0,    0.1,  999.0,  999.0,  999.0,  999.0,  999.0,  999.0,  999.0,  999.0,  999.0,  999.0,  999.0,  999.0,  999.0,  999.0,  999.0,  999.0,  999.0,  999.0,  999.0,  999.0,  999.0,  999.0,  999.0,  999.0,  999.0,  999.0,  999.0,  999.0,  999.0,  999.0,  999.0,  999.0,  999.0,  999.0,  999.0,  999.0,  999.0,    3.7,    2.8,    2.1
2000/11/01 08:40,  999.0,   -3.0,   -1.6,   -0.8,   -1.5,   -1.8,   -0.4,    0.5,    0.2,   -0.9,  999.0,  999.0,  999.0,    0.0,  999.0,  999.0,  999.0,    0.7,  999.0,  999.0,  999.0,  999.0,  999.0,  999.0,  999.0,  999.0,  999.0,  999.0,  999.0,  999.0,  999.0,  999.0,  999.0,  999.0,  999.0,  999.0,  -18.4,  999.0,  999.0,  999.0,  999.0,  999.0,  999.0,  999.0,  999.0,  999.0,  999.0,  999.0,  999.0,  999.0,  999.0,  999.0,  999.0,    2.7,    3.8,    3.6,    4.4,    4.3
2000/11/01 08:50,  999.0,   -2.7,   -1.1,   -0.8,   -0.5,   -1.3,   -0.9,    0.7,   -2.2,  999.0,   -0.3,   -0.2,  999.0,  999.0,    2.0,  999.0,  999.0,    0.6,    0.9,    0.2,   -0.5,  999.0,  999.0,  999.0,  999.0,  999.0,  999.0,  999.0,  999.0,  999.0,  999.0,  999.0,  999.0,  999.0,  999.0,  -18.5,  999.0,  -18.1,  -17.8,  -18.0,  -17.6,  -16.9,  999.0,  999.0,  999.0,  999.0,  999.0,  999.0,  999.0,  999.0,  999.0,    0.8,  999.0,    3.7,  999.0,    4.4,    5.7,    5.0
2000/11/01 09:00,  999.0,   -4.3,   -1.8,   -1.4,   -0.4,   -2.1,   -5.0,   -7.2,  -17.9,  -20.9,  -15.7,  -10.9,  -10.0,  -10.9,  -10.6,   -3.4,   -1.2,   -0.7,   -1.6,   -3.4,   -5.1,  999.0,  -20.6,  -17.4,  -12.9,   -8.7,   -4.6,   -0.8,   -0.5,  999.0,   -1.2,   -0.4,   -0.6,   -0.8,   -0.9,  -18.9,   -9.6,   -9.5,   -9.9,   -9.9,  -18.5,  -18.4,  999.0,  999.0,  999.0,  999.0,  999.0,  999.0,  999.0,  999.0,  999.0,    5.4,    5.8,  999.0,    3.5,    3.1,    3.7,    4.9
2000/11/01 09:10,   -1.0,  999.0,   -2.5,   -2.8,   -3.1,   -1.8,   -0.6,   -0.9,   -0.7,   -0.9,   -0.9,   -0.8,   -0.3,   -0.3,   -0.7,    0.3,   -0.3,   -0.7,   -0.3,   -0.6,   -1.0,   -0.7,   -0.8,   -0.9,   -0.9,   -0.8,   -1.3,   -0.5,   -0.9,   -1.2,   -0.9,   -0.3,   -0.5,   -0.7,  999.0,   -0.9,   -0.7,   -0.7,   -0.5,   -0.4,   -0.6,  999.0,  999.0,  999.0,  999.0,  999.0,  999.0,  999.0,    4.1,    2.8,    6.3,    6.3,    6.4,    9.9,    5.7,    9.3,  999.0,    4.8
2000/11/01 09:20,   -0.7,   -1.6,   -1.5,   -1.4,   -1.5,   -1.4,   -1.4,   -1.5,   -1.6,   -1.1,   -1.6,   -0.8,   -1.8,   -0.5,   -1.1,   -1.9,   -0.7,   -1.7,   -1.4,   -0.5,   -0.9,   -1.4,   -0.5,   -0.4,   -0.5,   -1.3,   -1.0,   -0.8,   -0.8,   -0.2,   -0.2,   -1.0,   -0.8,   -1.0,   -0.9,   -0.7,   -0.9,   -0.8,   -1.1,   -0.8,   -0.7,   -0.9,   -0.6,  999.0,  999.0,  999.0,  999.0,  999.0,   14.6,   14.3,   13.8,   13.0,   11.9,   11.7,   11.4,   10.5,    9.4,    6.8
2000/11/01 09:30,  999.0,  999.0,   -1.3,   -2.3,   -2.6,   -2.3,   -2.2,   -1.0,  999.0,  999.0,   -0.8,   -0.4,   -0.5,    0.5,   -1.2,   -1.4,   -0.8,   -0.5,   -0.8,   -1.1,   -1.6,   -0.9,   -0.8,   -0.5,   -0.6,   -0.9,   -0.6,   -1.1,   -0.6,   -0.5,   -0.9,   -1.2,   -0.3,   -0.7,   -1.1,   -0.7,   -0.8,   -0.5,   -0.7,   -0.3,  999.0,   -0.5,   -0.5,   -0.4,   -0.9,   -1.1,  999.0,   -1.1,   -1.3,  999.0,   -0.9,  999.0,   -0.9,   -1.3,   -0.2,   -0.1,   -1.1,   -0.6
2000/11/01 09:40,   -0.6,    1.0,   -0.3,   -1.0,   -1.6,   -2.6,   -3.0,    1.2,  999.0,  999.0,  999.0,   -0.3,   -0.0,   -0.8,   -0.5,   -1.0,   -0.2,   -0.8,   -0.9,   -0.3,   -0.4,   -0.8,   -0.4,   -0.4,   -0.8,   -1.2,   -0.3,   -0.5,   -0.8,   -0.8,   -1.4,   -1.2,  999.0,   -0.6,  999.0,   -0.6,   -0.4,   -1.0,   -0.3,   -0.4,   -1.7,   -0.7,   -0.7,   -1.3,   -1.1,   -0.9,   -0.6,   -0.0,   -0.5,   -0.7,   -0.6,   -0.7,   -1.0,   -0.8,   -1.0,   -0.7,   -0.5,   -1.1
2000/11/01 09:50,    9.8,    6.7,   -0.4,   -1.0,    0.6,  999.0,  999.0,  999.0,  999.0,  999.0,  999.0,   -0.7,   -0.6,  999.0,   -1.2,   -1.0,   -0.8,  999.0,  999.0,   -0.8,   -0.9,   18.1,    8.6,    9.1,   16.6,    7.9,   11.5,    7.2,   13.7,    6.6,   12.8,  999.0,    1.1,   10.7,   -0.1,    9.7,    0.2,    4.0,    7.4,    2.6,   -0.5,   -0.1,    3.3,    0.4,    1.5,  999.0,  999.0,    1.3,   -0.7,   -1.0,    1.0,   -1.0,    0.7,   -0.2,   -0.2,   -1.7,   -0.9,   -0.4
2000/11/01 10:00,   16.3,   11.9,    5.8,    1.5,    1.5,    1.1,    1.1,    0.5,  999.0,  999.0,  999.0,  999.0,  999.0,  999.0,  999.0,  999.0,  999.0,  999.0,  999.0,  999.0,  999.0,   18.6,   18.2,   17.4,   17.5,   16.8,   16.0,  999.0,  999.0,   13.0,  999.0,   13.0,  999.0,   12.1,  999.0,    9.1,  999.0,    8.9,    8.9,  999.0,  999.0,  999.0,  999.0,    4.9,    5.3,  999.0,    4.2,    3.0,    2.9,  999.0,  999.0,  999.0,    0.3,  999.0,  999.0,  999.0,  999.0,  999.0
2000/11/01 10:10,   17.0,   10.9,    5.1,    1.2,    0.4,    0.2,    0.5,    1.0,    0.7,  999.0,  999.0,  999.0,  999.0,  999.0,  999.0,  999.0,  999.0,  999.0,  999.0,  999.0,  999.0,  999.0,   16.3,  999.0,   15.1,   14.5,   12.8,   11.7,   11.0,   10.4,    9.0,    8.0,    6.2,    6.4,    4.6,    3.4,  999.0,    0.9,  999.0,    0.5,    1.3,    1.4,  999.0,    1.1,  999.0,    0.6,    1.3,    0.9,    1.0,    0.5,    0.0,    0.2,  999.0,    0.8,    0.6,    0.7,  999.0,    0.5
2000/11/01 10:20,   16.4,    9.2,    4.1,    1.8,    1.0,  999.0,    0.4,    0.8,    0.4,  999.0,  999.0,  999.0,  999.0,  999.0,  999.0,  999.0,  999.0,  999.0,  999.0,  999.0,   18.0,   17.2,   16.5,   15.5,   14.8,   13.7,   12.3,  999.0,   11.0,    9.7,    8.5,    7.7,    6.9,    6.1,    4.2,    3.9,    2.5,    1.2,  999.0,    0.8,    0.6,    0.2,    0.4,    0.7,    0.8,    0.3,    0.6,    0.6,    1.2,    0.9,    0.7,    0.6,    0.8,    1.0,    0.9,    0.4,    0.5,    0.4
2000/11/01 10:30,   19.1,   13.4,    6.4,    3.3,    1.2,    1.1,    0.2,    0.4,   -0.2,  999.0,  999.0,  999.0,  999.0,  999.0,  999.0,  999.0,  999.0,  999.0,  999.0,  999.0,   18.5,   18.4,   16.8,  999.0,   14.7,   12.4,   12.3,  999.0,   10.2,    8.9,    7.4,    6.8,    5.4,    4.5,    3.3,    2.1,    1.0,    0.6,    1.0,    0.6,  999.0,    1.0,    0.5,    0.5,    0.4,    0.0,    0.7,    0.5,    0.7,  999.0,    1.1,    0.7,    1.7,    0.8,    1.1,    0.6,    1.1,    0.6
2000/11/01 10:40,   19.3,   15.0,    9.1,    4.0,    0.5,    1.4,    0.6,  999.0,    0.2,  999.0,  999.0,  999.0,  999.0,  999.0,  999.0,  999.0,  999.0,  999.0,  999.0,  999.0,  999.0,   16.0,   15.3,   14.1,   13.2,   12.3,   11.1,   10.6,    9.7,    8.5,    7.4,    6.5,    6.2,    4.4,    3.9,    3.2,    1.7,    1.0,    1.4,    0.7,    1.1,    0.6,    0.4,    0.4,    0.5,    0.9,  999.0,    0.9,    1.0,    0.7,    0.9,    0.7,    0.7,    1.2,    0.4,    0.6,    0.7,    1.0
2000/11/01 10:50,   16.8,   10.6,    6.4,    3.2,   -0.2,    0.5,  999.0,    0.4,  999.0,  999.0,  999.0,  999.0,  999.0,  999.0,  999.0,  999.0,  999.0,  999.0,  999.0,  999.0,   16.2,   17.9,   14.8,   15.1,   14.3,   12.9,   11.6,    9.2,   10.2,    8.1,    7.0,    7.9,    6.2,    5.6,    2.1,    3.9,  999.0,    1.5,    0.9,    0.3,    0.4,    1.0,  999.0,    0.4,    0.6,    0.8,  999.0,    0.5,    0.4,    0.7,    0.7,    0.7,    0.7,    1.2,    0.4,    1.0,    1.1,    1.6
2000/11/01 11:00,   13.7,    6.8,    1.3,   -0.4,   -0.4,    0.4,  999.0,   -0.2,    0.4,  999.0,  999.0,  999.0,  999.0,  999.0,  999.0,  999.0,  999.0,  999.0,  999.0,  999.0,  999.0,   16.3,   14.7,   14.4,   13.4,   12.7,   11.3,   11.5,    9.5,    8.3,    8.4,    6.3,    5.5,    5.6,    3.5,    1.3,    2.9,    1.5,    1.2,    0.3,    0.2,    0.6,    0.3,    0.3,    0.7,    0.7,    0.5,    0.5,    0.6,    0.7,    0.4,  999.0,    0.0,    0.6,  999.0,    0.4,    0.9,    0.8
2000/11/01 11:10,   17.5,   11.3,    3.5,    0.9,   -0.7,   -0.6,   -0.5,   -0.6,   -0.6,  999.0,  999.0,  999.0,  999.0,  999.0,  999.0,  999.0,  999.0,  999.0,  999.0,  999.0,   17.5,   17.3,   14.8,   14.8,   13.8,   12.4,   10.3,   10.7,    8.8,    7.0,    7.3,    5.9,    4.0,    2.5,    2.1,    1.3,    1.3,    0.8,    0.3,    0.5,    0.7,    0.7,    0.6,    0.5,    0.7,    1.2,    0.6,    1.1,    0.9,    0.4,    0.7,    0.8,    1.0,    0.8,    0.7,    0.7,    1.1,    0.7
2000/11/01 11:20,   20.9,   14.2,    5.9,    2.7,    0.3,   -0.4,    0.2,    0.3,   -0.4,  999.0,  999.0,  999.0,  999.0,  999.0,  999.0,  999.0,  999.0,  999.0,  999.0,   19.3,   18.2,   18.1,   16.9,   15.7,   13.7,   12.7,   12.1,   10.1,    8.9,    8.2,    7.0,    6.0,    4.1,    3.6,    2.1,    0.9,    0.6,    0.7,    1.1,  999.0,    1.2,    0.8,    0.8,    0.7,    1.3,    0.9,    1.0,    0.2,    0.3,    0.6,    0.7,    0.4,    1.0,    0.9,    0.6,    0.8,    0.7,    0.6
2000/11/01 11:30,   21.2,   16.7,    9.6,    5.4,   11.4,    3.0,    2.0,  999.0,    0.7,  999.0,  999.0,  999.0,  999.0,  999.0,  999.0,  999.0,  999.0,  999.0,  999.0,   15.2,   15.6,   15.7,   17.1,   12.9,   10.3,   13.7,    5.9,    6.4,    0.7,    6.3,    5.1,    3.2,    7.5,    3.6,    2.4,    0.6,    0.9,    0.4,    0.2,    1.2,    0.8,    0.6,    0.1,    0.7,    1.2,    1.7,    0.0,    0.4,    1.0,    0.6,    0.5,    0.4,    0.1,    0.7,  999.0,  999.0,    1.0,    0.9
2000/11/01 11:40,   20.7,   12.2,    7.3,   -0.5,   -0.1,   -0.0,    0.4,  999.0,  999.0,  999.0,  999.0,  999.0,  999.0,  999.0,  999.0,  999.0,  999.0,  999.0,  999.0,  999.0,   14.1,   15.8,   15.8,    7.9,    7.3,  999.0,    5.2,    3.8,  999.0,    4.1,    0.3,  999.0,    0.7,    1.6,    0.9,  999.0,    1.3,    0.5,    0.6,    0.8,  999.0,  999.0,  999.0,    0.4,    1.1,    0.5,    0.3,    0.7,    1.1,    0.8,  999.0,   -0.1,  999.0,    1.3,  999.0,  999.0,    0.5,    0.5
2000/11/01 11:50,   17.3,   11.3,    4.3,    0.2,  999.0,  999.0,  999.0,  999.0,  999.0,  999.0,  999.0,  999.0,  999.0,  999.0,  999.0,  999.0,  999.0,  999.0,  999.0,   15.3,  999.0,  999.0,   10.7,    9.5,   10.6,    8.6,   11.3,    6.1,    4.9,    1.1,    7.0,    0.6,    4.3,    3.2,    0.7,    0.7,    0.3,    0.8,    0.5,    0.8,    0.4,    0.9,   -0.2,    0.5,    0.6,    0.7,    0.3,    0.4,    0.5,    0.7,    0.2,    0.5,    0.2,    0.1,    0.5,    0.7,    1.6,    0.9
2000/11/01 12:00,   19.3,   15.4,    9.6,    5.7,    0.3,   -0.8,   -2.0,   -1.1,   -1.2,  999.0,  999.0,  999.0,  999.0,  999.0,  999.0,  999.0,  999.0,  999.0,  999.0,  999.0,   15.7,   21.3,   10.3,  999.0,   19.1,   22.2,    0.1,   23.2,   15.9,   23.6,   16.1,    0.0,   41.4,   20.6,   22.1,   41.1,   21.1,    0.8,    0.7,   21.2,    1.0,    0.6,    0.3,    1.0,   14.7,   20.9,   14.3,  999.0,   41.7,   14.3,  999.0,   20.5,   21.1,   21.2,   21.1,  999.0,  999.0,   43.2
2000/11/01 12:10,  999.0,  999.0,  999.0,  999.0,  999.0,  999.0,  999.0,  999.0,  999.0,  999.0,  999.0,  999.0,  999.0,  999.0,  999.0,  999.0,  999.0,  999.0,  999.0,  999.0,  999.0,   27.1,   28.2,   30.8,   29.3,   29.9,   34.8,   34.9,   34.1,   38.0,   37.6,   39.1,   39.8,   40.4,   40.8,   41.7,   42.4,   42.2,   42.1,   42.0,   41.7,   41.5,   41.9,   41.9,   41.8,   41.6,   41.6,   41.8,   41.8,   41.9,   41.7,   41.7,   41.9,   42.0,   42.7,   41.8,   41.7,   41.9
2000/11/01 12:20,  999.0,  999.0,  999.0,  999.0,  999.0,   -0.9,  999.0,  999.0,   -0.2,    0.1,  999.0,    4.0,  999.0,  999.0,  999.0,  999.0,  999.0,  999.0,  999.0,  999.0,   24.3,   25.3,   27.0,   29.4,   28.8,   29.5,   30.7,   32.9,   28.5,   35.5,   40.2,   35.9,   38.4,   36.9,   37.5,   38.9,   41.6,   41.4,   41.1,   41.8,  999.0,   40.1,   39.4,  999.0,   40.1,   41.8,   42.2,   41.0,   41.6,   42.0,  999.0,   41.8,   42.6,   42.1,  999.0,   41.6,   41.6,   42.1
2000/11/01 12:30,  999.0,  999.0,  999.0,  999.0,   -0.6,   -0.5,  999.0,   -3.4,   -0.2,    0.9,  999.0,  999.0,  999.0,  999.0,  999.0,  999.0,  999.0,  999.0,  999.0,  999.0,   26.1,   30.4,   27.9,   34.6,   34.8,   36.9,   34.7,   38.7,   41.6,   39.4,   40.5,   41.8,   41.3,   41.9,   42.0,   41.1,   41.5,   42.0,   41.7,   41.9,   41.8,   41.8,   42.1,   41.6,  999.0,   42.0,   42.0,   41.8,   41.7,   41.7,   41.9,   41.4,   41.8,   41.8,   42.0,   41.9,   41.9,   41.4
2000/11/01 12:40,  999.0,  999.0,  999.0,  999.0,   -1.3,   -0.6,   -0.3,  999.0,  999.0,  999.0,  999.0,  999.0,  999.0,  999.0,  999.0,  999.0,  999.0,  999.0,  999.0,  999.0,   30.3,   30.9,   32.9,   36.1,   36.1,   38.9,   39.6,   40.4,   41.9,   41.7,   42.2,   41.6,   42.0,   41.7,   41.6,   42.0,   42.0,   41.7,   41.5,   42.1,   41.5,   42.0,   42.0,   41.6,   41.5,   41.7,   41.5,   41.7,   42.0,   41.8,   41.5,   41.6,   41.5,   41.7,   41.5,   42.0,   41.8,   41.3
2000/11/01 12:50,  999.0,  999.0,  999.0,  999.0,   -0.5,    0.4,    1.6,  999.0,  999.0,  999.0,  999.0,  999.0,  999.0,  999.0,  999.0,  999.0,  999.0,  999.0,  999.0,   35.1,   35.8,   37.6,   36.8,   36.3,   39.3,   40.8,   41.8,   42.5,   41.8,   35.7,   29.1,   27.6,   40.8,   42.0,   29.8,   32.2,   34.4,   31.6,   31.7,   25.8,   42.0,   36.4,   26.3,   29.6,   42.6,   42.2,   32.1,   35.1,   21.1,   41.8,   42.3,   42.3,   21.7,   42.2,   42.0,   11.1,   41.6,   41.1
2000/11/01 13:00,  999.0,  999.0,  999.0,  999.0,    0.5,    0.3,    1.3,  999.0,  999.0,  999.0,  999.0,  999.0,  999.0,  999.0,  999.0,  999.0,  999.0,  999.0,  999.0,   32.9,   35.3,   36.6,  999.0,   39.6,  999.0,   41.2,   41.5,  999.0,   42.4,  999.0,  999.0,   42.3,  999.0,  999.0,   41.5,   42.3,  999.0,  999.0,   42.5,   42.1,  999.0,  999.0,   42.0,   42.2,  999.0,   41.5,  999.0,   41.7,  999.0,   41.5,  999.0,  999.0,   41.8,   42.4,  999.0,   42.4,  999.0,   41.5
2000/11/01 13:10,  999.0,  999.0,  999.0,   -0.1,    0.7,    1.1,    1.2,    1.0,  999.0,  999.0,  999.0,  999.0,  999.0,  999.0,  999.0,  999.0,  999.0,  999.0,  999.0,  999.0,  999.0,  999.0,  999.0,  999.0,  999.0,  999.0,  999.0,  999.0,  999.0,  999.0,  999.0,  999.0,  999.0,  999.0,  999.0,  999.0,  999.0,    0.4,    0.9,  999.0,  999.0,  999.0,  999.0,    2.4,    5.6,  999.0,  999.0,  999.0,  -41.5,  -41.7,  999.0,  -41.2,  -41.7,  -41.9,  -41.5,  -42.1,  999.0,  -41.8
2000/11/01 13:20,  999.0,  999.0,  999.0,    2.2,    0.8,    1.2,    2.0,    1.6,    1.3,  999.0,  999.0,  999.0,  999.0,  999.0,  999.0,  999.0,  999.0,  999.0,  999.0,  999.0,  999.0,  999.0,  999.0,  999.0,  999.0,  999.0,  999.0,  999.0,  999.0,  999.0,  999.0,  999.0,  999.0,  999.0,  999.0,  999.0,  999.0,  999.0,  999.0,  999.0,  999.0,  999.0,  999.0,  999.0,  999.0,  999.0,  999.0,  999.0,  -42.1,  -41.9,  -42.2,  -41.8,  -41.8,  -41.4,  -41.9,  -41.9,  -42.4,  -41.7
2000/11/01 13:30,  999.0,  999.0,  999.0,   -0.3,  999.0,    0.9,    2.4,    2.5,  999.0,  999.0,    0.6,  999.0,  999.0,  999.0,  999.0,  999.0,  999.0,  999.0,  999.0,  999.0,  999.0,  999.0,  999.0,  999.0,  999.0,  999.0,  999.0,  999.0,  999.0,  999.0,  999.0,  999.0,  -40.2,  999.0,  999.0,  999.0,  999.0,  999.0,  999.0,  999.0,  -41.8,  999.0,  -42.3,  999.0,  999.0,  -42.0,  999.0,  -41.6,  -42.9,  -20.5,  -27.7,   -0.2,  -20.8,  -42.2,  -20.3,  -42.1,  -31.2,  -20.3
2000/11/01 13:40,  999.0,    2.5,    0.1,    0.6,    1.2,    0.9,    1.5,    1.1,  999.0,  999.0,  999.0,  999.0,  999.0,  999.0,  999.0,  999.0,  999.0,  999.0,  999.0,  999.0,  999.0,  999.0,  999.0,  999.0,  999.0,  999.0,  999.0,  999.0,  999.0,  999.0,  999.0,  999.0,  999.0,  999.0,  999.0,  999.0,    4.6,  999.0,    1.4,    1.5,  999.0,  999.0,  999.0,    0.4,    0.4,  999.0,  999.0,  999.0,    0.6,    0.7,    0.5,    0.6,    1.0,  999.0,    0.6,  999.0,    0.5,    1.1
2000/11/01 13:50,  999.0,  999.0,  999.0,    1.1,    1.2,    0.6,    0.7,    0.9,    0.6,  999.0,  999.0,  999.0,  999.0,  999.0,  999.0,  999.0,  999.0,  999.0,  999.0,  999.0,  999.0,  999.0,  999.0,  999.0,  999.0,  999.0,    7.9,  999.0,    9.9,    6.5,  999.0,  999.0,  999.0,  999.0,  999.0,  999.0,    0.8,    1.6,    1.7,    1.1,  999.0,    0.6,    1.2,    0.8,    0.7,  999.0,  999.0,  999.0,    0.7,    0.3,    0.7,    0.7,    0.6,    0.9,    0.4,    0.5,    0.7,    0.6
2000/11/01 14:00,  999.0,  999.0,  999.0,    1.2,    1.8,    1.7,    1.0,    1.0,    0.9,    0.5,    0.3,  999.0,  999.0,  999.0,  999.0,  999.0,  999.0,  999.0,  999.0,  999.0,   17.5,  999.0,  999.0,   13.0,   12.5,  999.0,  999.0,    7.8,    7.6,    6.7,    5.2,  999.0,    1.4,    1.0,    1.2,    0.8,    0.5,  999.0,    1.0,    0.9,    0.7,  999.0,    0.7,    0.6,    1.4,    1.1,    0.9,    0.8,    0.5,    0.8,    0.5,    1.1,  999.0,    1.0,    0.7,    0.9,    0.9,    0.6
2000/11/01 14:10,  999.0,  999.0,  999.0,  999.0,    0.5,    1.6,    1.5,    1.7,    1.9,    1.5,    0.7,  999.0,  999.0,  999.0,  999.0,  999.0,  999.0,  999.0,  999.0,   18.6,   17.4,   14.8,   12.8,   11.6,   10.3,    5.9,    5.7,    1.1,    2.8,    4.1,    0.5,    0.8,    0.7,    0.6,    0.5,    0.4,    0.3,    0.5,    0.6,    0.5,    0.7,    0.6,    0.7,    1.0,    0.4,    0.7,    0.6,    0.9,    0.8,  999.0,    0.4,    0.9,    0.8,    0.9,    0.7,    1.0,    1.0,    0.4
2000/11/01 14:20,  999.0,  999.0,  999.0,  999.0,    1.3,    0.8,    0.9,    1.0,    1.4,    1.8,    0.4,  999.0,  999.0,  999.0,  999.0,  999.0,  999.0,  999.0,  999.0,   13.5,   12.0,  999.0,    8.5,    7.0,    5.2,    4.1,    3.5,    1.6,    1.2,    0.9,    1.2,    0.8,    0.4,    0.6,    0.6,    0.8,    0.4,    0.4,    0.5,    0.7,    0.8,    0.6,    0.5,    0.7,    0.5,    0.5,    1.2,    0.3,    0.4,    1.3,    0.9,    0.8,    0.4,    0.5,    0.8,    0.6,    0.8,    0.4
2000/11/01 14:30,  999.0,  999.0,  999.0,    1.2,    1.6,    0.5,    0.6,    0.6,    1.3,    2.4,  999.0,  999.0,  999.0,  999.0,  999.0,  999.0,  999.0,  999.0,  999.0,   17.9,   15.7,   13.5,    7.9,    5.4,    3.0,    3.5,    0.7,    0.6,    0.7,    1.0,    0.0,    0.8,    0.5,    0.8,  999.0,    0.8,    1.3,    0.6,    0.7,    0.8,    0.4,    0.8,    0.1,    0.8,    0.9,    0.7,    0.8,    0.8,    0.9,    1.0,    1.3,    0.6,    0.4,  999.0,    1.2,    0.3,    0.3,    0.6
2000/11/01 14:40,  999.0,  999.0,    3.2,    1.9,  999.0,    0.7,  999.0,    0.3,    1.6,    0.2,    1.7,    1.6,  999.0,  999.0,  999.0,  999.0,  999.0,  999.0,  999.0,   15.3,   12.3,   11.0,    7.2,    6.1,  999.0,    1.4,    0.7,    1.2,    1.4,    0.3,    1.2,    0.5,    1.0,    0.7,    0.6,    3.9,    0.2,    0.9,    0.8,   10.6,  999.0,    0.5,    0.6,   21.2,    0.7,  999.0,   18.7,    0.4,   15.1,   13.5,  999.0,    0.9,    8.3,    5.8,    4.2,  999.0,  999.0,    5.0
2000/11/01 14:50,  999.0,  999.0,    1.1,    3.0,    0.8,    1.2,    2.1,  999.0,  999.0,  999.0,  999.0,  999.0,  999.0,  999.0,  999.0,  999.0,  999.0,   17.3,  999.0,   10.2,   13.9,    7.0,    8.5,    3.4,    1.6,  999.0,  999.0,    3.3,    0.7,    1.4,  999.0,  999.0,    1.2,    0.4,    1.2,    8.0,    1.7,    0.9,  999.0,   12.6,   14.5,    1.6,    0.4,    0.9,  999.0,   21.2,   21.2,    0.9,   11.0,    1.1,    8.9,   -1.3,  999.0,  999.0,    0.4,   -4.5,   10.7,    9.2
2000/11/01 15:00,  999.0,  999.0,   -0.3,    3.2,    2.1,    2.0,    1.9,    1.9,    2.8,  999.0,  999.0,  999.0,  999.0,  999.0,  999.0,  999.0,  999.0,   18.1,  999.0,   14.7,   15.1,  999.0,    9.6,   12.7,    6.5,    6.6,    3.0,    3.3,    3.3,    2.1,    1.3,    0.8,    0.6,    0.4,    1.0,    0.8,  999.0,    1.5,    1.0,    1.3,    0.4,    0.3,    0.4,    0.7,    0.9,    0.6,    1.0,    1.1,    0.9,    0.4,    0.8,    0.2,    1.0,    0.9,    0.3,    0.8,    0.5,    0.5
2000/11/01 15:10,  999.0,  999.0,  999.0,  999.0,    0.8,    0.3,    0.9,    1.0,    1.3,    1.3,    0.4,    0.5,    1.3,  999.0,  999.0,  999.0,  999.0,  999.0,  999.0,  999.0,  999.0,   13.1,   10.1,   10.9,    7.0,    4.7,    3.6,    2.1,    1.3,    0.4,    1.3,    0.8,    1.2,    0.7,    0.8,    1.0,    0.9,    0.9,    0.5,    0.5,    1.1,    0.9,    0.4,    0.5,    0.6,    1.1,    0.8,    0.6,    0.5,    0.5,    0.7,    0.4,    0.6,    0.5,    0.5,    0.6,    0.7,    0.1
2000/11/01 15:20,  999.0,  999.0,    0.4,    1.0,    1.1,    1.2,    1.9,    2.6,    1.8,    1.0,    2.1,    2.4,    1.9,    2.0,  999.0,  999.0,  999.0,  999.0,  999.0,  999.0,  999.0,   13.0,   11.4,    4.1,    7.2,    5.2,  999.0,    0.8,    1.3,    1.1,    1.0,    1.3,    0.8,    1.4,    0.7,    0.5,    0.7,    0.9,    0.6,    0.5,    0.8,    1.1,    0.8,    0.8,    0.6,    0.7,    0.9,    0.6,    1.1,    1.5,  999.0,    0.5,    1.0,    0.9,    1.1,    1.1,  999.0,    0.6
2000/11/01 15:30,  999.0,    1.9,    0.9,    1.8,    1.3,    0.3,    0.5,    1.1,    1.1,    0.6,    0.7,    1.7,  999.0,    1.6,  -22.0,  999.0,  -20.5,  999.0,  -22.2,  -24.1,  999.0,  999.0,   10.8,   -2.1,    5.1,    5.5,  -16.9,    1.1,    0.6,   -9.7,    1.0,    0.9,  -36.3,  -15.1,  -21.8,  -17.3,   -4.9,    0.1,  999.0,  999.0,    0.7,   -9.8,  -41.3,  -41.6,  999.0,   25.9,   18.0,    0.8,    0.4,   20.9,  999.0,  999.0,   20.2,   20.3,  -15.9,  -20.5,    0.9,  -15.5
2000/11/01 15:40,  999.0,  999.0,  999.0,    2.4,    2.1,    0.5,    2.0,    2.3,    2.6,    1.5,   -0.2,    0.5,  999.0,  999.0,  999.0,  999.0,  999.0,  999.0,  999.0,  -19.1,  999.0,  -17.2,  -15.6,  999.0,  -13.1,  999.0,  -11.2,   -9.2,   -8.5,   -7.1,   -6.3,   -4.7,   -3.4,   -2.3,  999.0,   -0.5,   -0.9,   -1.0,   -0.7,   -1.0,   -0.7,   -0.5,   -0.9,   -0.8,   -1.1,   -0.5,  999.0,  999.0,   -0.8,   -0.7,  999.0,  999.0,  999.0,   -0.9,   -1.2,   -1.2,   -0.7,   -0.7
2000/11/01 15:50,  999.0,  999.0,  999.0,    1.4,    2.7,    1.3,    2.9,    1.8,    2.6,    2.4,  999.0,  999.0,  999.0,    1.7,  999.0,  999.0,  999.0,  999.0,  999.0,  999.0,  999.0,  999.0,  -17.2,  -15.7,  -12.8,  -11.7,  -11.1,   -8.3,   -7.3,   -7.0,   -6.5,   -4.1,   -4.2,   -2.6,   -0.8,   -2.0,   -0.9,   -0.9,   -1.0,   -1.3,   -0.9,   -0.6,   -0.3,   -0.7,   -0.1,   -0.3,  999.0,   -0.7,   -1.2,   -0.7,   -1.1,   -0.9,  999.0,   -0.4,   -0.9,   -1.0,   -0.4,   -0.8
2000/11/01 16:00,  999.0,  999.0,    1.1,    2.2,    0.9,    0.8,    1.6,    1.7,    2.2,    2.4,    1.4,    0.2,  999.0,  999.0,  999.0,  999.0,  999.0,  999.0,  999.0,  -16.7,  -17.3,  -15.4,  -11.3,  -13.0,  -10.7,  -10.6,   -7.4,   -9.0,   -7.5,   -8.2,   -5.3,   -3.4,   -2.7,  999.0,   -1.6,   -1.5,   -0.7,   -1.0,   -0.3,    0.2,   -0.2,   -1.2,   -0.4,   -0.5,   -1.0,   -0.2,   -1.1,   -0.5,   -0.7,    0.5,   -0.6,   -0.0,   -0.7,   -0.7,   -0.7,   -1.0,  999.0,   -0.6
2000/11/01 16:10,  999.0,  999.0,    0.6,    1.2,    3.0,    1.1,    1.0,    1.1,    1.4,  999.0,    1.7,  999.0,  999.0,  999.0,  999.0,  999.0,  999.0,  999.0,  -13.3,  999.0,  -15.6,  -14.2,  -13.7,  -11.9,   -9.4,   -7.0,   -5.3,   -5.1,   -5.6,   -4.3,   -4.5,   -3.2,   -2.4,   -2.3,   -2.2,   -1.0,   -0.7,   -1.0,   -0.7,   -1.0,   -1.2,   -0.6,  999.0,   -0.7,   -0.6,   -0.4,   -1.0,   -0.5,   -0.5,   -0.8,   -0.9,   -0.8,   -0.4,   -1.0,   -0.8,   -1.1,   -0.9,   -0.9
2000/11/01 16:20,  999.0,  999.0,  999.0,    0.8,    1.7,    0.7,    1.7,    0.5,  999.0,    3.5,  999.0,    0.2,  999.0,  999.0,  999.0,  999.0,  999.0,  999.0,  999.0,  999.0,  -13.8,  -12.6,  -11.8,  -10.5,   -8.4,   -8.5,   -5.5,   -4.5,   -3.7,   -2.7,   -0.7,   -0.8,   -0.8,   -0.1,   -0.9,   -1.1,   -0.8,   -0.9,   -1.2,   -1.1,   -0.9,   -0.7,   -1.0,   -1.0,   -0.9,   -0.7,    1.2,   -0.8,   -0.5,   -0.3,   -0.4,   -0.9,   -0.4,   -1.0,   -0.7,   -0.7,   -0.9,   -1.5
2000/11/01 16:30,  999.0,  999.0,  999.0,    3.0,    1.0,    0.3,    2.2,    1.8,    2.7,    2.9,    1.1,  999.0,  999.0,  999.0,  999.0,  999.0,  999.0,  999.0,  999.0,  999.0,  -15.4,  -13.5,  -11.8,  -10.5,   -9.4,   -6.3,   -6.1,   -4.0,   -3.2,   -1.6,   -1.2,   -0.7,   -1.0,   -0.9,   -0.5,   -1.1,   -0.6,   -0.8,   -1.2,   -0.7,   -0.7,   -0.7,   -1.5,   -0.5,   -0.7,   -0.8,   -0.3,   -0.4,   -0.7,   -0.8,   -1.2,   -0.4,   -1.0,   -0.7,   -0.9,   -0.8,   -0.7,   -1.0
2000/11/01 16:40,  999.0,  999.0,  999.0,  999.0,    1.4,    0.9,    2.0,    1.8,    2.9,    2.0,    2.9,  999.0,  999.0,  999.0,  999.0,  999.0,   19.6,   18.7,   18.8,   17.4,   -3.9,    7.6,   11.3,    2.2,   15.3,   14.6,   -7.5,   -5.9,  -17.7,  999.0,  -30.6,  -16.7,   -0.7,   -6.1,   -6.6,    4.4,  -34.5,   -7.5,    0.9,  999.0,   12.6,   -8.5,   -8.8,  -38.4,    1.1,   -1.2,  -40.2,   42.3,    1.5,   -0.9,   14.2,  999.0,   20.7,   -0.9,   20.3,   -1.1,  999.0,    9.5
2000/11/01 16:50,  999.0,  999.0,  999.0,  999.0,    0.1,  999.0,  999.0,    2.1,  999.0,    1.5,  999.0,  999.0,  999.0,  999.0,  999.0,  999.0,  999.0,  999.0,  999.0,  999.0,  -15.3,  -14.4,  -13.2,  999.0,  -11.6,  999.0,   -9.1,   -6.2,   -6.2,   -6.0,   -3.8,   -4.0,   -3.1,   -1.7,   -0.9,   -0.1,   -0.4,   -0.3,   -0.4,   -0.5,   -0.3,   -0.7,   -0.6,   -0.8,   -0.7,   -0.4,   -1.0,   -0.9,   -0.5,   -0.9,   -0.4,   -1.0,   -0.7,   -0.6,   -0.1,  999.0,  999.0,   -1.1
2000/11/01 17:00,  999.0,    1.1,    2.0,    1.4,    1.7,    1.2,    1.0,    1.3,    2.1,    1.1,    0.6,  999.0,  999.0,  999.0,  999.0,  999.0,  999.0,  999.0,  999.0,  999.0,  -14.4,  -12.2,  -11.4,   -9.1,   -9.1,   -6.9,   -5.4,   -4.4,   17.3,   -0.5,   -1.1,   -0.9,   -0.7,   -0.6,   20.4,   -0.7,   -0.9,   -1.1,   -1.0,   -0.9,    9.8,   -1.0,   -0.8,   13.6,   13.7,    9.9,   -0.8,   -0.8,   -0.7,    6.5,   -0.6,   41.8,   -1.0,   -0.6,   -0.5,   -0.6,   -0.8,   -0.7
2000/11/01 17:10,  999.0,  999.0,    0.7,   -0.7,    0.1,    0.8,    0.6,    0.6,    1.0,  999.0,  999.0,  999.0,   -4.9,  999.0,  999.0,  999.0,  999.0,  999.0,  999.0,  -19.6,  -18.6,  -16.8,  999.0,  -14.9,  999.0,  -12.9,  -12.0,  -10.8,   -9.4,  999.0,  999.0,  999.0,   -5.1,  999.0,  999.0,   -1.3,  999.0,  999.0,   -1.3,   -0.7,   -0.3,  999.0,   -0.5,   -0.8,   -0.4,   -0.9,   -0.5,   -0.9,   -0.1,  999.0,  999.0,  999.0,   -1.2,  999.0,   -0.8,  999.0,   -1.0,   -1.0
2000/11/01 17:20,  999.0,  999.0,   -2.4,    0.5,  999.0,    0.7,    1.1,    1.3,    0.2,    0.1,    0.3,   -0.4,  999.0,  999.0,  999.0,  999.0,  999.0,  999.0,  999.0,  999.0,  999.0,  999.0,  -15.1,  -13.1,  -12.6,  -13.4,  -10.5,   -9.4,   -6.7,   -5.0,   -8.3,   -2.6,   -3.4,   -2.4,   -2.1,   -1.4,   -0.7,   -0.6,   -0.8,   -1.2,   -0.3,   -0.7,  999.0,   -0.6,   -0.5,   -0.4,   -0.1,   -1.0,   -1.0,   -1.2,  999.0,   -0.7,   -0.6,   -1.0,   -0.5,   -0.6,   -0.7,   -0.7
2000/11/01 17:30,  999.0,  999.0,  999.0,    0.3,    0.7,    1.3,    1.0,    0.5,    1.3,    0.9,    2.5,  999.0,  999.0,   -7.6,  999.0,  999.0,  999.0,  999.0,  999.0,  999.0,  -19.1,  -15.6,  -15.6,  -14.1,  -13.2,  -11.8,  -10.8,   -8.2,  999.0,  999.0,  999.0,   -3.9,   -3.2,   -2.6,   -1.0,   -1.6,   -1.2,   -0.7,    0.0,   -1.1,   -0.7,   -0.9,   -0.8,   -0.4,   -0.6,  999.0,   -1.0,   -0.7,   -0.9,   -1.0,   -0.8,  999.0,   -0.8,   -0.2,   -0.4,   -0.7,   -0.9,   -0.7
2000/11/01 17:40,  999.0,  999.0,  999.0,    0.8,    0.8,    0.3,    0.4,    0.2,    0.4,  999.0,  999.0,  999.0,  999.0,  -11.4,   -9.0,  999.0,  999.0,  999.0,  999.0,  999.0,  999.0,  999.0,  999.0,  -13.7,  999.0,  -11.0,  -10.0,   -8.6,   -4.9,  999.0,   -5.4,   -5.7,   -0.5,   -1.9,  999.0,   -1.2,   -0.6,   -0.8,   -0.7,   -0.6,   -0.4,   -0.5,   -0.5,   -0.3,   -0.8,   -0.7,   -0.8,   -0.6,   -0.7,   -1.0,   -0.9,   -0.5,  999.0,   -1.6,   -0.8,   -1.3,  999.0,   -0.6
2000/11/01 17:50,  999.0,  999.0,  999.0,   -0.3,   -0.1,   -0.5,   -0.1,    0.3,   -0.1,   -0.4,  999.0,  999.0,  999.0,  999.0,  999.0,  999.0,  999.0,  999.0,  -15.2,  -19.4,  -15.5,  -14.3,  -13.3,  -12.7,  -10.2,  -10.2,  -10.6,   -7.9,   -7.6,   -6.9,   -3.1,   -2.3,   -2.0,   -1.4,   -0.4,   -0.5,   -1.2,   -0.8,   -0.5,   -0.7,   -0.8,   -0.9,   -1.0,   -1.3,   -0.9,   -1.1,   -1.3,   -0.7,   -0.3,   -0.4,  999.0,   -0.9,   -0.9,   -0.9,   -0.5,  999.0,   -0.9,   -0.6
2000/11/01 18:00,  999.0,  999.0,  999.0,   -0.0,   -0.8,   -0.2,   -0.3,    0.1,   -0.1,  999.0,  999.0,  999.0,  999.0,  999.0,  999.0,  999.0,  999.0,  999.0,  999.0,  -19.6,  -16.0,  -15.3,  -12.5,  -10.5,  -11.5,   -7.9,   -7.0,   -6.8,  999.0,  999.0,   -2.8,   -1.5,  999.0,   -1.0,   -1.0,   -0.7,   -0.2,   -0.5,   -1.3,   -0.4,   -0.8,   -0.3,   -0.3,   -1.0,   -1.2,    0.1,   -0.5,   -0.6,   -0.3,   -0.6,  999.0,   -1.0,   -0.6,   -0.1,   -0.5,   -0.9,   -1.2,   -1.4
2000/11/01 18:10,  999.0,  999.0,  999.0,  999.0,  999.0,   -0.1,  999.0,  999.0,    1.4,  999.0,    0.3,    0.1,  999.0,  999.0,    4.4,  999.0,  999.0,  999.0,  999.0,  999.0,  999.0,  999.0,  999.0,  999.0,  999.0,  999.0,  999.0,  999.0,  999.0,  999.0,  999.0,   18.4,   -9.8,   -9.5,  999.0,   -7.6,   -8.1,   -6.9,   -6.8,  999.0,   -5.6,   -3.6,  999.0,   -3.2,   -2.5,  999.0,   -0.6,   -0.2,  999.0,  999.0,   -1.8,   -0.2,  999.0,  999.0,   -1.2,   -1.0,   -1.4,  999.0
2000/11/01 18:20,  999.0,  999.0,  999.0,  999.0,  999.0,  999.0,  999.0,  999.0,  999.0,  999.0,  999.0,  999.0,  999.0,  999.0,  999.0,  999.0,  999.0,  -21.8,  -21.1,  -21.1,  999.0,  999.0,  999.0,  999.0,  999.0,  999.0,  999.0,  -14.7,  999.0,  999.0,  -10.0,  -10.3,  -10.7,   -7.6,  999.0,   -8.0,   -7.0,   -7.1,   -5.2,   -4.1,   -5.0,   -3.7,   -3.3,   -2.2,   -2.1,  999.0,   -1.0,   -0.8,   -0.6,    0.2,    0.2,   -1.5,   -0.6,   -0.6,  999.0,   -1.4,   -0.7,   -1.0
2000/11/01 18:30,  999.0,  999.0,  999.0,  999.0,  999.0,    4.4,    4.6,    0.1,    2.8,    0.7,    2.5,  999.0,  999.0,   -5.1,    0.5,  -12.1,  999.0,  999.0,  999.0,  999.0,  999.0,  999.0,  999.0,  999.0,  999.0,  999.0,  999.0,  999.0,   -6.6,  999.0,   -4.5,   -5.4,   -4.9,   -0.4,   -0.1,   -4.5,   -2.8,   -2.2,   -1.4,   -0.7,   -0.4,   -0.7,   -0.8,   -1.0,   -0.5,   -0.7,   -0.2,   -0.8,   -0.7,  999.0,   -0.8,   -1.2,  999.0,   -0.8,   -1.1,   -1.2,   -0.6,   -0.9
2000/11/01 18:40,  999.0,  999.0,    0.6,   -1.9,    0.1,    2.6,   -1.6,    2.1,    0.9,    0.4,   -2.8,  999.0,   -3.2,  999.0,  999.0,  999.0,   -0.9,   -0.7,  999.0,  999.0,  999.0,  999.0,  999.0,  999.0,  999.0,  999.0,  999.0,  999.0,  999.0,  999.0,  999.0,  999.0,  999.0,  999.0,  999.0,  999.0,  999.0,  999.0,  999.0,  999.0,   -2.0,   -1.9,  999.0,   -1.4,  999.0,  999.0,    0.1,   -0.5,  999.0,   -0.3,  999.0,   -1.0,  999.0,   -0.3,  999.0,   -0.2,   -0.9,   -1.2
2000/11/01 18:50,  999.0,  999.0,  999.0,  999.0,   -0.4,    1.6,    0.5,    0.9,   -4.4,   -4.0,   -4.2,  999.0,   -0.1,  999.0,   -3.3,   -7.1,  999.0,  999.0,  999.0,  999.0,  999.0,  999.0,  999.0,  999.0,  999.0,  999.0,  999.0,  999.0,  999.0,  999.0,  999.0,  999.0,   -9.8,   -7.9,   -6.8,   -5.5,  999.0,   -3.5,   -4.4,   -3.3,   -0.4,  999.0,  999.0,   -0.7,   -1.0,   -1.1,   -0.6,  999.0,   -0.2,   -0.5,   -0.4,   -0.1,  999.0,    0.1,   -0.4,  999.0,   -1.4,   -0.9
2000/11/01 19:00,  999.0,  999.0,  999.0,  999.0,  999.0,   -0.7,    0.4,   -0.2,    0.3,   -9.0,   -4.7,   -7.4,  999.0,   -0.1,   -3.2,   -3.4,  999.0,  999.0,  999.0,  999.0,  999.0,  999.0,  999.0,  999.0,  999.0,  999.0,  999.0,  999.0,  999.0,  999.0,  999.0,   -9.7,   -9.3,   -8.7,   -8.1,   -7.1,   -6.5,   -5.5,   -4.5,   -4.5,  999.0,  999.0,   -1.0,   -1.0,   -0.1,   -0.4,   -0.8,   -1.1,   -1.3,   -0.4,  999.0,   -0.2,   -1.0,   -0.6,  999.0,  999.0,   -0.5,   -0.9
2000/11/01 19:10,  999.0,  999.0,  999.0,  999.0,    0.6,   -0.8,    0.8,    1.9,    2.5,   -2.2,   -2.6,   -0.4,   -1.8,   -4.9,  999.0,  999.0,  999.0,  999.0,  999.0,  999.0,  999.0,  999.0,  999.0,  999.0,  999.0,  999.0,  999.0,  999.0,  999.0,  999.0,  999.0,  999.0,  999.0,  999.0,  999.0,  999.0,  999.0,  999.0,  999.0,  999.0,  999.0,  999.0,  999.0,  999.0,  999.0,  999.0,  999.0,  999.0,  999.0,  999.0,  999.0,  999.0,  999.0,  999.0,  999.0,  999.0,  999.0,  999.0
2000/11/01 19:20,  999.0,  999.0,  999.0,  999.0,  999.0,  999.0,    3.2,    0.2,   -5.2,  999.0,   -3.7,   -3.5,   -4.5,   -3.3,   -6.4,  999.0,  999.0,  999.0,  999.0,  999.0,  999.0,  999.0,  999.0,  999.0,  999.0,  999.0,  999.0,  999.0,  999.0,  999.0,  999.0,  999.0,  999.0,  999.0,  999.0,  999.0,  999.0,  999.0,  999.0,  999.0,  999.0,  999.0,  999.0,  999.0,  999.0,  999.0,  999.0,  999.0,  999.0,  999.0,  999.0,  999.0,  999.0,  999.0,  999.0,  999.0,  999.0,  999.0
2000/11/01 19:30,  999.0,  999.0,  999.0,  999.0,  999.0,   -1.1,  999.0,    1.1,   -0.4,    0.8,   -3.2,   -0.7,   -1.6,   -0.5,    1.4,   -1.5,  999.0,  999.0,  999.0,  999.0,  999.0,  999.0,  999.0,  999.0,  999.0,  999.0,  999.0,  999.0,  999.0,  999.0,  999.0,  999.0,  999.0,  999.0,  999.0,  999.0,  999.0,  999.0,  999.0,  999.0,  999.0,  999.0,  999.0,  999.0,  999.0,  999.0,  999.0,  999.0,  999.0,  999.0,  999.0,  999.0,  999.0,  999.0,  999.0,  999.0,  999.0,  999.0
2000/11/01 19:40,  999.0,  999.0,  999.0,  999.0,  999.0,    2.3,    1.0,    1.4,    0.6,   -1.8,  999.0,   -0.9,  999.0,   -1.7,   -2.5,  999.0,  999.0,  999.0,  999.0,  999.0,  999.0,  999.0,  999.0,  999.0,  999.0,  999.0,  999.0,  999.0,  999.0,  999.0,  999.0,  999.0,  999.0,  999.0,  999.0,  999.0,  999.0,  999.0,  999.0,  999.0,  999.0,  999.0,  999.0,  999.0,  999.0,  999.0,  999.0,  999.0,  999.0,  999.0,  999.0,  999.0,  999.0,  999.0,  999.0,  999.0,  999.0,  999.0
2000/11/01 19:50,  999.0,  999.0,  999.0,  999.0,    2.1,  999.0,    2.3,    1.2,    2.0,    2.4,   -2.0,    0.9,  999.0,   -3.6,  999.0,   -6.4,  999.0,  999.0,  999.0,  999.0,  999.0,  999.0,  999.0,  999.0,  999.0,  999.0,  999.0,  999.0,  999.0,  999.0,  999.0,  999.0,  999.0,  999.0,  999.0,  999.0,  999.0,  999.0,  999.0,  999.0,  999.0,  999.0,  999.0,  999.0,  999.0,  999.0,  999.0,  999.0,  999.0,  999.0,  999.0,  999.0,  999.0,  999.0,  999.0,  999.0,  999.0,  999.0
2000/11/01 20:00,  999.0,  999.0,  999.0,  999.0,   -7.4,    1.5,    1.6,    2.7,    1.9,   -0.7,    1.2,  999.0,   -5.0,   -1.0,    3.0,  999.0,  999.0,  999.0,  999.0,  999.0,  999.0,  999.0,  999.0,  999.0,  999.0,  999.0,  999.0,  999.0,  999.0,  -36.4,  -37.9,  999.0,  999.0,  -41.1,  999.0,  999.0,  999.0,  999.0,  999.0,  999.0,  999.0,  999.0,  999.0,  999.0,  999.0,  999.0,  999.0,  999.0,  999.0,  999.0,  999.0,  999.0,  999.0,  999.0,  999.0,  999.0,  999.0,  999.0
2000/11/01 20:10,  999.0,  999.0,  999.0,  999.0,  999.0,  999.0,    1.9,   -0.9,  999.0,   -0.0,    0.4,   -0.7,  999.0,  999.0,  999.0,   -2.4,   -2.4,  999.0,  999.0,  999.0,  999.0,  999.0,  999.0,  999.0,  999.0,  999.0,  -28.9,  999.0,  -29.7,  999.0,  -33.1,  999.0,  -34.8,  -33.8,  999.0,  -38.4,  -36.1,  999.0,  -37.1,  999.0,  -39.0,  999.0,  -41.8,  999.0,  -41.5,  -41.6,  -41.4,  -41.3,  -41.1,  -41.8,  999.0,  -41.6,  999.0,  999.0,  999.0,  -42.0,  999.0,  -41.2
2000/11/01 20:20,  999.0,  999.0,  999.0,  999.0,  999.0,  999.0,  999.0,    0.7,  999.0,  999.0,   -0.9,   -0.4,   -2.8,   -2.5,  999.0,  999.0,  999.0,  999.0,  999.0,  999.0,  999.0,  999.0,  999.0,  999.0,  999.0,  999.0,  -28.8,  -29.4,  999.0,  -33.1,  -30.3,  999.0,  -34.3,  999.0,  -36.6,  -37.3,  999.0,  999.0,  999.0,  -38.0,  999.0,  -40.8,  999.0,  -40.6,  999.0,  999.0,  999.0,  999.0,  999.0,  -41.7,  -41.5,  -41.9,  -42.3,  -42.3,  999.0,  -42.1,  999.0,  -42.2
2000/11/01 20:30,  999.0,  999.0,  999.0,  999.0,   -1.7,    5.1,    1.2,   -0.5,    1.9,    2.1,    3.6,    7.5,    2.2,    1.6,  999.0,  999.0,  999.0,  999.0,  999.0,  999.0,  999.0,  999.0,  999.0,  999.0,  999.0,  999.0,  999.0,  999.0,  999.0,  999.0,  999.0,  -33.4,  999.0,  999.0,  999.0,  -37.1,  999.0,  -38.7,  999.0,  999.0,  -41.5,  999.0,  999.0,  -41.4,  -41.4,  -41.8,  -42.2,  -42.0,  -41.6,  -41.1,  -41.9,  -42.0,  -42.2,  -41.9,  999.0,  999.0,  -41.7,  999.0
2000/11/01 20:40,  999.0,  999.0,  999.0,  999.0,   -1.2,   -0.7,   -0.9,    0.3,  999.0,    1.5,    1.8,    1.1,   -4.1,   -0.5,    1.0,  999.0,   -0.4,  999.0,   -6.0,  999.0,  999.0,  999.0,  999.0,  999.0,  999.0,  999.0,  999.0,  999.0,  999.0,  -30.1,  -31.0,  -31.3,  999.0,  -34.5,  999.0,  -34.7,  999.0,  -37.5,  -38.2,  -40.4,  999.0,  -42.2,  -41.7,  -41.6,  -41.5,  -41.7,  -41.3,  999.0,  -41.5,  -41.2,  -41.3,  -42.3,  -41.7,  -41.8,  -41.7,  -41.8,  -41.6,  -41.8
2000/11/01 20:50,  999.0,  999.0,  999.0,  999.0,  999.0,    1.1,   -0.9,    0.2,  999.0,    0.9,   -2.6,   -0.1,    3.9,    1.2,  999.0,  999.0,  999.0,  999.0,  999.0,  999.0,  999.0,  999.0,  999.0,  999.0,  999.0,  999.0,  999.0,  999.0,  999.0,  999.0,  999.0,  999.0,  999.0,  999.0,  999.0,  999.0,  999.0,  999.0,  999.0,  999.0,  999.0,  999.0,  999.0,  999.0,  999.0,  999.0,  999.0,  999.0,  999.0,  999.0,  999.0,  999.0,  999.0,  999.0,  999.0,  999.0,  999.0,  999.0
2000/11/01 21:00,  999.0,  999.0,  999.0,  999.0,   -1.1,    0.2,    3.5,   -0.4,    1.3,  999.0,  999.0,  999.0,   -5.5,   -3.9,  999.0,  999.0,  999.0,  999.0,   -7.6,  999.0,  999.0,  999.0,  999.0,  999.0,  999.0,  999.0,  999.0,  -11.7,  999.0,  999.0,   -9.9,   -9.1,   -8.0,   -6.8,   -5.9,   -4.5,  999.0,  999.0,   -0.6,  999.0,  999.0,  999.0,  999.0,  999.0,  999.0,  999.0,  999.0,  999.0,  999.0,  999.0,  999.0,  999.0,  999.0,  999.0,  999.0,  999.0,  999.0,  999.0
2000/11/01 21:10,  999.0,  999.0,  999.0,  999.0,    1.7,   -0.3,   -0.7,    1.9,   -0.7,   -2.7,    2.8,  999.0,  999.0,  999.0,  999.0,  999.0,  999.0,  999.0,  999.0,  999.0,  999.0,  999.0,  999.0,  999.0,  999.0,  999.0,  999.0,  999.0,  999.0,  999.0,   -9.0,   -7.3,   -6.9,  999.0,   -4.5,  999.0,   -2.7,  999.0,   -0.1,   -0.3,   -0.3,  999.0,  999.0,   -0.5,  999.0,   -1.4,  999.0,   -0.9,   -0.3,   -0.6,   -1.1,   -0.6,  999.0,   -1.0,  999.0,   -0.4,   -0.2,   -0.3
2000/11/01 21:20,  999.0,  999.0,  999.0,  999.0,   -2.4,   -0.9,   -1.2,    2.4,   -1.3,    2.2,    0.8,    0.2,  999.0,  999.0,    2.9,  999.0,  999.0,  999.0,  999.0,  999.0,  -16.2,  999.0,  999.0,  999.0,  999.0,  999.0,  999.0,  -18.5,  999.0,  -17.7,  999.0,  -16.2,  999.0,  -14.7,  999.0,  999.0,  999.0,  999.0,  -11.4,  999.0,  999.0,   -8.8,   -8.4,  999.0,  999.0,  999.0,   -5.6,   -4.9,  999.0,  999.0,  999.0,  999.0,   -0.9,  999.0,  999.0,  999.0,  999.0,  999.0
2000/11/01 21:30,  999.0,  999.0,  999.0,  999.0,   -3.6,   -0.7,    0.8,    0.8,   -1.3,  999.0,   -3.7,   -3.9,  999.0,   -6.3,   -5.0,   -6.4,  999.0,   -8.7,  999.0,  999.0,  999.0,  999.0,  999.0,  999.0,  999.0,  999.0,  -27.0,  999.0,  999.0,  999.0,  -28.6,  -30.2,  -29.3,  -33.1,  -31.7,  -33.7,  -34.4,  -33.7,  -32.3,  -33.4,  -34.2,  999.0,  999.0,  -35.2,  999.0,  -38.2,  -38.7,  999.0,  999.0,  999.0,  999.0,  -38.8,   -0.3,   -2.9,  -23.3,  -41.1,  999.0,  999.0
2000/11/01 21:40,  999.0,  999.0,  999.0,  999.0,  999.0,    1.4,   -0.1,    0.8,   -2.1,   -0.6,   -1.0,  999.0,  999.0,    0.7,    0.6,  999.0,  999.0,  999.0,  999.0,  999.0,   -9.8,  999.0,  -15.9,  999.0,  999.0,  999.0,  999.0,  999.0,  -29.7,  999.0,  999.0,  999.0,  -32.2,  -33.2,  -33.1,  -34.3,  999.0,  -35.6,  -36.2,  -37.0,  -37.6,  -38.5,  999.0,  -39.6,  -40.7,  999.0,  -41.6,  999.0,  -41.6,  -42.0,  -41.6,  -42.4,  -42.3,  -41.3,  -42.6,  -42.0,  -41.2,  -42.2
2000/11/01 21:50,  999.0,  999.0,  999.0,  999.0,    4.3,   -1.3,    0.9,    0.4,    0.2,    0.2,   -5.5,   -2.0,   -2.6,   -4.9,  999.0,  999.0,    0.9,   -1.4,   -3.9,  999.0,  999.0,  999.0,  999.0,  999.0,  999.0,  999.0,  999.0,  999.0,  999.0,  999.0,  -30.6,  -31.8,  -33.7,  -32.8,  -33.4,  -34.3,  -35.1,  999.0,  -36.7,  -37.3,  -37.9,  -39.0,  -39.3,  -39.8,  -41.2,  999.0,  999.0,  999.0,  999.0,  -41.7,  -42.0,  999.0,  -41.9,  -41.7,  -41.2,  -41.7,  -41.0,  -41.8
2000/11/01 22:00,  999.0,  999.0,  999.0,  999.0,   -0.3,    1.3,    0.8,    1.5,    1.2,    2.1,    1.3,  999.0,    0.1,  999.0,  999.0,  999.0,   -1.5,  999.0,  999.0,  999.0,  999.0,  999.0,  999.0,  999.0,  999.0,  999.0,  999.0,  999.0,  999.0,  999.0,  -32.8,  -35.8,  -34.3,  -35.0,  -38.7,  -41.7,  -37.6,  -38.0,  -40.4,  -42.2,  -40.5,  -42.0,  -42.1,  999.0,  -42.9,  -41.7,  -41.8,  -41.9,  -41.7,  -42.0,  999.0,  -41.8,  -41.8,  -42.2,  -42.2,  999.0,  -42.2,  999.0
2000/11/01 22:10,  999.0,  999.0,  999.0,  999.0,    1.4,    2.2,    2.2,   -0.1,    0.0,   -0.5,   -0.7,   -0.6,   -0.4,  999.0,  999.0,  999.0,  999.0,  999.0,  999.0,  999.0,  999.0,  -12.0,  999.0,  -21.3,  999.0,  999.0,  -28.2,  999.0,  -30.8,  999.0,  -32.5,  -34.0,  999.0,  -36.3,  -37.3,  -37.1,  -39.1,  -39.9,  -40.7,  -41.8,  -41.8,  -41.8,  999.0,  999.0,  -41.3,  -41.6,  -42.5,  -41.4,  -41.1,  -42.1,  -41.9,  -41.8,  -41.4,  -41.6,  -41.2,  -41.8,  -41.6,  999.0
2000/11/01 22:20,  999.0,   -1.1,  999.0,  999.0,    1.5,    0.4,   -3.3,    1.9,    1.8,  999.0,    1.5,    1.4,  999.0,  999.0,  999.0,  999.0,  999.0,  999.0,   -0.6,    0.2,  -12.1,  999.0,  999.0,  999.0,  999.0,  999.0,  999.0,  999.0,  -36.5,  -35.4,  999.0,  -37.4,  999.0,  -41.5,  999.0,  -40.2,  -40.8,  999.0,  -42.5,  -42.3,  -42.6,  -41.6,  -42.1,  999.0,  -41.7,  999.0,  -42.0,  -42.4,  -41.9,  999.0,  999.0,  -42.2,  -42.0,  999.0,  999.0,  -41.4,  -42.0,  -41.8
2000/11/01 22:30,  999.0,  999.0,   -1.8,   -0.3,    2.3,   -0.3,    1.3,    1.3,   -0.4,   -2.8,  999.0,  999.0,   -8.8,  999.0,  999.0,  999.0,  999.0,  999.0,   -7.4,   -5.2,  999.0,  999.0,  999.0,  999.0,  999.0,  999.0,  999.0,  999.0,  999.0,  999.0,  999.0,  999.0,  999.0,  999.0,  999.0,  999.0,  999.0,  999.0,  999.0,  999.0,  999.0,  999.0,  999.0,  999.0,  999.0,  999.0,  999.0,  999.0,  999.0,  999.0,  999.0,  999.0,  999.0,  999.0,  999.0,  999.0,  999.0,  999.0
2000/11/01 22:40,  999.0,  999.0,  999.0,  999.0,    1.9,   -1.7,    3.1,  999.0,    3.0,   -0.0,  999.0,    3.6,    4.4,    3.6,    4.7,  999.0,  999.0,  999.0,    1.8,  999.0,  999.0,  999.0,  999.0,  999.0,  999.0,  999.0,  999.0,  999.0,  999.0,  999.0,  999.0,  999.0,  999.0,  999.0,  999.0,  999.0,  999.0,  999.0,  999.0,  999.0,  999.0,  999.0,  999.0,  999.0,  999.0,  999.0,  999.0,  999.0,  999.0,  999.0,  999.0,  999.0,  999.0,  999.0,  999.0,  999.0,    0.7,  999.0
2000/11/01 22:50,  999.0,  999.0,  999.0,   -3.1,    1.6,    0.9,    1.7,    2.0,  999.0,  999.0,  999.0,  999.0,  999.0,  999.0,  999.0,  999.0,   -3.9,  999.0,  999.0,  999.0,  999.0,  999.0,  999.0,  999.0,  999.0,  999.0,  999.0,  999.0,  999.0,    4.1,  999.0,    3.1,  999.0,  999.0,    1.1,  999.0,  999.0,  999.0,  999.0,  999.0,  999.0,  999.0,  999.0,  999.0,    0.7,  999.0,  999.0,  999.0,  999.0,  999.0,  999.0,  999.0,  999.0,    0.1,  999.0,  999.0,    0.4,    0.7
2000/11/01 23:00,  999.0,  999.0,  999.0,  999.0,  999.0,    0.9,   -2.5,    3.4,  999.0,  999.0,   -2.2,   -1.6,    0.5,    3.5,  999.0,  999.0,  999.0,  999.0,  999.0,  999.0,  999.0,  999.0,  999.0,  999.0,  999.0,  999.0,  999.0,  999.0,    5.2,    5.5,    2.6,  999.0,  999.0,  999.0,    1.0,  999.0,  999.0,    0.2,  999.0,    0.6,  999.0,    0.2,  999.0,    1.4,    0.5,    1.2,  999.0,  999.0,  999.0,  999.0,  999.0,    0.8,  999.0,   -0.0,    0.8,  999.0,    1.1,  999.0
2000/11/01 23:10,  999.0,  999.0,  999.0,  999.0,    2.8,  999.0,    0.2,    5.7,  999.0,    3.7,    4.2,   -7.9,   -7.2,    3.3,  999.0,  999.0,  999.0,  999.0,  999.0,   -5.5,  999.0,  999.0,  999.0,  999.0,   16.9,  999.0,  999.0,  999.0,   13.7,   13.7,  999.0,  999.0,  999.0,  999.0,  999.0,  999.0,  999.0,    8.4,  999.0,    7.0,  999.0,  999.0,    4.8,  999.0,    3.0,  999.0,  999.0,  999.0,  999.0,    0.1,  999.0,  999.0,  999.0,  999.0,  999.0,  999.0,  999.0,  999.0
2000/11/01 23:20,  999.0,  999.0,  999.0,  999.0,  999.0,   -3.0,    1.6,    2.5,    2.5,    0.6,    0.9,  999.0,  999.0,    8.2,  999.0,    3.0,  999.0,    6.5,   -3.7,    7.5,  999.0,  999.0,  999.0,  999.0,  999.0,  999.0,  999.0,  999.0,  999.0,  999.0,  999.0,  999.0,  999.0,  999.0,  999.0,  999.0,  999.0,  999.0,  999.0,  999.0,  999.0,  999.0,  999.0,  999.0,  999.0,  999.0,  999.0,  999.0,  999.0,  999.0,  999.0,  999.0,  999.0,  999.0,  999.0,  999.0,  999.0,  999.0
2000/11/01 23:30,  999.0,  999.0,  999.0,  999.0,    0.3,    0.5,  999.0,    6.8,   -0.7,   -0.8,    5.7,    2.5,    3.6,    2.8,   -2.6,   -1.7,  999.0,    7.7,  999.0,  999.0,  999.0,  999.0,  999.0,  999.0,  999.0,  999.0,  999.0,  999.0,  999.0,  999.0,  999.0,  999.0,  999.0,    5.0,  999.0,  999.0,  999.0,  999.0,  999.0,    1.2,    0.8,  999.0,  999.0,  999.0,    0.2,    0.1,  999.0,    0.2,    0.4,  999.0,  999.0,    0.6,  999.0,  999.0,    1.1,  999.0,  999.0,  999.0
2000/11/01 23:40,  999.0,  999.0,  999.0,    0.6,   -0.0,   -0.1,    1.1,    0.7,    0.2,   -1.1,    0.4,    5.4,  999.0,    4.5,  999.0,  999.0,  999.0,  999.0,  999.0,    7.4,  999.0,  999.0,  999.0,  999.0,    8.8,  999.0,    6.6,  999.0,    3.5,    2.6,  999.0,    2.0,    1.3,    1.1,    1.1,    0.9,    1.3,    1.0,    1.1,  999.0,  999.0,    0.7,   -0.1,    0.5,    0.2,  999.0,    0.9,    0.9,    1.2,    0.5,    0.6,    0.4,  999.0,    0.7,    0.9,    1.2,    0.5,    0.7
2000/11/01 23:50,  999.0,  999.0,  999.0,  999.0,  999.0,    2.6,    3.2,  999.0,  999.0,    2.1,    3.7,   -0.4,  999.0,  999.0,  999.0,  999.0,    8.0,  999.0,  999.0,    2.5,    0.4,  999.0,  999.0,  999.0,  999.0,  999.0,  999.0,    7.8,  999.0,    0.9,    2.0,    2.5,    1.6,    1.1,    0.6,    1.0,    1.2,    0.8,    0.8,    1.1,    0.7,    0.7,  999.0,    1.0,    0.8,    0.3,    0.6,    1.3,  999.0,    0.6,    0.5,  999.0,    0.6,  999.0,    0.6,    0.7,    0.8,    0.3
